Darstellungsparameter: Aktuell verwendete Einstellungen:
Skalierung der Graphiken ... ?
xyx+y,   Skalierungsfaktor:      Skalierung: Modus: x, Faktor: 1
Darstellungszeitraum ... ?
Vom - - bis: - -   Zeitraum: 01.08.2018 - 07.08.2018
Min/Max/Avg-Anzeige ... ?
Zeige MMA aktuell
Zeige MMA Monat
Zeige MMA alles
Zeige --A aktuell
Zeige --A Monat
Zeige --A alles
Keine MMA-Anzeige
MMA:
Keine MMA-Graphiken
MMA-Basis: 01.08.2018 - 07.08.2018
Quicknavigation für Darstellung... ?
Tage:      1T, 2T, 3T, 5T -1T -2T -3T -5T +1T +2T +3T +5T
Wochen: 1W, 2W, 3W -1W -2W -3W +1W +2W +3W
Monate: 1M, 3M, 6M -1M -3M -6M +1M +3M +6M
Jahre:    1J, 3J, 5J, 10J -1J -3J -5J -10J +1J +3J +5J +10J
Nutze für die Darstellung ... ?
Originaldaten oder Mittelwerte auf ...
Stundenbasis Tagesbasis Wochenbasis
Monatsbasis Jahresbasis      Datenbasis: Original-Daten
Darstellen als:
Statistik (Auto) Statistik J:M      Darstellung:
Zur Graphik,    zurück zur Übersicht aller Sensoren.
 
Tabellarische Datenbersicht: ?
 
Sensor: Nr:Datum:Temp:Feuchte:Taupunkt:
Aussen-T/F 1 01-08-2018 00:00:00 22.8 C 65 % 15.88 C
2 01-08-2018 00:05:00 22.7 C 64 % 15.54 C
3 01-08-2018 00:10:00 22.6 C 65 % 15.69 C
4 01-08-2018 00:15:00 22.5 C 66 % 15.83 C
5 01-08-2018 00:20:00 22.4 C 66 % 15.74 C
6 01-08-2018 00:25:00 22.3 C 66 % 15.64 C
7 01-08-2018 00:30:00 22.3 C 66 % 15.64 C
8 01-08-2018 00:35:00 22.2 C 66 % 15.55 C
9 01-08-2018 00:40:00 22.2 C 67 % 15.78 C
10 01-08-2018 00:45:00 22.2 C 67 % 15.78 C
11 01-08-2018 00:50:00 22.1 C 67 % 15.69 C
12 01-08-2018 00:55:00 22 C 66 % 15.36 C
13 01-08-2018 01:00:00 21.9 C 66 % 15.26 C
14 01-08-2018 01:05:00 21.9 C 68 % 15.73 C
15 01-08-2018 01:10:00 21.8 C 67 % 15.4 C
16 01-08-2018 01:15:00 21.7 C 68 % 15.54 C
17 01-08-2018 01:20:00 21.6 C 68 % 15.44 C
18 01-08-2018 01:25:00 21.5 C 68 % 15.35 C
19 01-08-2018 01:30:00 21.4 C 69 % 15.48 C
20 01-08-2018 01:35:00 21.3 C 69 % 15.38 C
21 01-08-2018 01:40:00 21.2 C 69 % 15.29 C
22 01-08-2018 01:45:00 21.1 C 70 % 15.42 C
23 01-08-2018 01:50:00 20.9 C 70 % 15.23 C
24 01-08-2018 01:55:00 20.8 C 71 % 15.35 C
25 01-08-2018 02:00:00 20.7 C 71 % 15.25 C
Sensor: Nr:Datum:Temp:Feuchte:Taupunkt:
Aussen-T/F 26 01-08-2018 02:05:00 20.7 C 72 % 15.47 C
27 01-08-2018 02:10:00 20.6 C 72 % 15.38 C
28 01-08-2018 02:15:00 20.5 C 73 % 15.5 C
29 01-08-2018 02:20:00 20.4 C 73 % 15.4 C
30 01-08-2018 02:25:00 20.4 C 73 % 15.4 C
31 01-08-2018 02:30:00 20.3 C 73 % 15.3 C
32 01-08-2018 02:35:00 20.3 C 73 % 15.3 C
33 01-08-2018 02:40:00 20.3 C 73 % 15.3 C
34 01-08-2018 02:45:00 20.3 C 74 % 15.51 C
35 01-08-2018 02:50:00 20.3 C 74 % 15.51 C
36 01-08-2018 02:55:00 20.2 C 75 % 15.63 C
37 01-08-2018 03:00:00 20.2 C 75 % 15.63 C
38 01-08-2018 03:05:00 20.2 C 75 % 15.63 C
39 01-08-2018 03:10:00 20.3 C 75 % 15.72 C
40 01-08-2018 03:15:00 20.4 C 74 % 15.61 C
41 01-08-2018 03:20:00 20.5 C 75 % 15.92 C
42 01-08-2018 03:25:00 20.5 C 74 % 15.71 C
43 01-08-2018 03:30:00 20.4 C 74 % 15.61 C
44 01-08-2018 03:35:00 20.4 C 74 % 15.61 C
45 01-08-2018 03:40:00 20.3 C 74 % 15.51 C
46 01-08-2018 03:45:00 20.4 C 75 % 15.82 C
47 01-08-2018 03:50:00 20.5 C 75 % 15.92 C
48 01-08-2018 03:55:00 20.6 C 75 % 16.01 C
49 01-08-2018 04:00:00 20.6 C 74 % 15.8 C
50 01-08-2018 04:05:00 20.6 C 74 % 15.8 C
Sensor: Nr:Datum:Temp:Feuchte:Taupunkt:
Aussen-T/F 51 01-08-2018 04:10:00 20.7 C 74 % 15.9 C
52 01-08-2018 04:15:00 20.7 C 75 % 16.11 C
53 01-08-2018 04:20:00 20.8 C 75 % 16.21 C
54 01-08-2018 04:25:00 20.8 C 74 % 16 C
55 01-08-2018 04:30:00 20.7 C 75 % 16.11 C
56 01-08-2018 04:35:00 20.7 C 75 % 16.11 C
57 01-08-2018 04:40:00 20.7 C 75 % 16.11 C
58 01-08-2018 04:45:00 20.6 C 76 % 16.22 C
59 01-08-2018 04:50:00 20.6 C 75 % 16.01 C
60 01-08-2018 04:55:00 20.6 C 75 % 16.01 C
61 01-08-2018 05:00:00 20.6 C 75 % 16.01 C
62 01-08-2018 05:05:00 20.7 C 77 % 16.52 C
63 01-08-2018 05:10:00 20.7 C 84 % 17.9 C
64 01-08-2018 05:15:00 20.4 C 85 % 17.79 C
65 01-08-2018 05:20:00 20.1 C 86 % 17.68 C
66 01-08-2018 05:25:00 19.8 C 88 % 17.75 C
67 01-08-2018 05:30:00 19.6 C 88 % 17.56 C
68 01-08-2018 05:35:00 19.3 C 89 % 17.44 C
69 01-08-2018 05:40:00 19.1 C 89 % 17.24 C
70 01-08-2018 05:45:00 18.9 C 90 % 17.22 C
71 01-08-2018 05:50:00 18.8 C 90 % 17.12 C
72 01-08-2018 05:55:00 18.6 C 90 % 16.93 C
73 01-08-2018 06:00:00 18.6 C 91 % 17.1 C
74 01-08-2018 06:05:00 18.4 C 91 % 16.9 C
75 01-08-2018 06:10:00 18.3 C 91 % 16.81 C
Sensor: Nr:Datum:Temp:Feuchte:Taupunkt:
Aussen-T/F 76 01-08-2018 06:15:00 18.2 C 91 % 16.71 C
77 01-08-2018 06:20:00 18.1 C 92 % 16.78 C
78 01-08-2018 06:25:00 17.9 C 92 % 16.58 C
79 01-08-2018 06:30:00 17.9 C 92 % 16.58 C
80 01-08-2018 06:35:00 17.8 C 92 % 16.48 C
81 01-08-2018 06:40:00 17.8 C 92 % 16.48 C
82 01-08-2018 06:45:00 17.7 C 93 % 16.55 C
83 01-08-2018 06:50:00 17.7 C 93 % 16.55 C
84 01-08-2018 06:55:00 17.6 C 93 % 16.45 C
85 01-08-2018 07:00:00 17.6 C 93 % 16.45 C
86 01-08-2018 07:05:00 17.6 C 93 % 16.45 C
87 01-08-2018 07:10:00 17.6 C 93 % 16.45 C
88 01-08-2018 07:15:00 17.5 C 93 % 16.36 C
89 01-08-2018 07:20:00 17.5 C 93 % 16.36 C
90 01-08-2018 07:25:00 17.5 C 94 % 16.52 C
91 01-08-2018 07:30:00 17.5 C 94 % 16.52 C
92 01-08-2018 07:35:00 17.6 C 94 % 16.62 C
93 01-08-2018 07:40:00 17.6 C 94 % 16.62 C
94 01-08-2018 07:45:00 17.6 C 94 % 16.62 C
95 01-08-2018 07:50:00 17.6 C 94 % 16.62 C
96 01-08-2018 07:55:00 17.6 C 94 % 16.62 C
97 01-08-2018 08:00:00 17.7 C 94 % 16.72 C
98 01-08-2018 08:05:00 17.7 C 94 % 16.72 C
99 01-08-2018 08:10:00 17.8 C 94 % 16.82 C
100 01-08-2018 08:15:00 17.9 C 95 % 17.09 C
Sensor: Nr:Datum:Temp:Feuchte:Taupunkt:
Aussen-T/F 101 01-08-2018 08:20:00 18.1 C 95 % 17.29 C
102 01-08-2018 08:25:00 18.2 C 95 % 17.39 C
103 01-08-2018 08:30:00 18.2 C 95 % 17.39 C
104 01-08-2018 08:35:00 18.4 C 95 % 17.58 C
105 01-08-2018 08:40:00 18.6 C 95 % 17.78 C
106 01-08-2018 08:45:00 18.8 C 95 % 17.98 C
107 01-08-2018 08:50:00 19.1 C 96 % 18.45 C
108 01-08-2018 08:55:00 19.3 C 95 % 18.48 C
109 01-08-2018 09:00:00 19.2 C 95 % 18.38 C
110 01-08-2018 09:05:00 19.3 C 95 % 18.48 C
111 01-08-2018 09:10:00 19.4 C 95 % 18.58 C
112 01-08-2018 09:15:00 19.6 C 95 % 18.78 C
113 01-08-2018 09:20:00 19.6 C 95 % 18.78 C
114 01-08-2018 09:25:00 19.6 C 95 % 18.78 C
115 01-08-2018 09:30:00 19.6 C 95 % 18.78 C
116 01-08-2018 09:35:00 19.6 C 94 % 18.61 C
117 01-08-2018 09:40:00 19.6 C 94 % 18.61 C
118 01-08-2018 09:45:00 19.6 C 94 % 18.61 C
119 01-08-2018 09:50:00 19.6 C 94 % 18.61 C
120 01-08-2018 09:55:00 19.7 C 95 % 18.88 C
121 01-08-2018 10:00:00 19.8 C 95 % 18.98 C
122 01-08-2018 10:05:00 20.1 C 95 % 19.27 C
123 01-08-2018 10:10:00 20.2 C 95 % 19.37 C
124 01-08-2018 10:15:00 20.4 C 95 % 19.57 C
125 01-08-2018 10:20:00 20.6 C 95 % 19.77 C
Sensor: Nr:Datum:Temp:Feuchte:Taupunkt:
Aussen-T/F 126 01-08-2018 10:25:00 20.8 C 95 % 19.97 C
127 01-08-2018 10:30:00 21 C 95 % 20.17 C
128 01-08-2018 10:35:00 21.3 C 95 % 20.47 C
129 01-08-2018 10:40:00 21.6 C 95 % 20.76 C
130 01-08-2018 10:45:00 21.7 C 93 % 20.52 C
131 01-08-2018 10:50:00 21.9 C 93 % 20.72 C
132 01-08-2018 10:55:00 22 C 92 % 20.64 C
133 01-08-2018 11:00:00 22.3 C 88 % 20.21 C
134 01-08-2018 11:05:00 22.7 C 89 % 20.79 C
135 01-08-2018 11:10:00 22.8 C 88 % 20.71 C
136 01-08-2018 11:15:00 23.1 C 85 % 20.44 C
137 01-08-2018 11:20:00 23.2 C 86 % 20.73 C
138 01-08-2018 11:25:00 23.4 C 88 % 21.3 C
139 01-08-2018 11:30:00 23.6 C 87 % 21.31 C
140 01-08-2018 11:35:00 23.6 C 86 % 21.12 C
141 01-08-2018 11:40:00 23.6 C 86 % 21.12 C
142 01-08-2018 11:45:00 23.5 C 85 % 20.83 C
143 01-08-2018 11:50:00 23.4 C 85 % 20.73 C
144 01-08-2018 11:55:00 23.3 C 85 % 20.63 C
145 01-08-2018 12:00:00 23.1 C 86 % 20.63 C
146 01-08-2018 12:05:00 22.8 C 86 % 20.33 C
147 01-08-2018 12:10:00 22.6 C 86 % 20.14 C
148 01-08-2018 12:15:00 22.3 C 87 % 20.03 C
149 01-08-2018 12:20:00 22.1 C 88 % 20.02 C
150 01-08-2018 12:25:00 21.9 C 88 % 19.82 C
Sensor: Nr:Datum:Temp:Feuchte:Taupunkt:
Aussen-T/F 151 01-08-2018 12:30:00 21.8 C 89 % 19.9 C
152 01-08-2018 12:35:00 21.7 C 90 % 19.99 C
153 01-08-2018 12:40:00 21.7 C 91 % 20.17 C
154 01-08-2018 12:45:00 21.6 C 91 % 20.07 C
155 01-08-2018 12:50:00 21.6 C 91 % 20.07 C
156 01-08-2018 12:55:00 21.6 C 91 % 20.07 C
157 01-08-2018 13:00:00 21.5 C 92 % 20.14 C
158 01-08-2018 13:05:00 21.5 C 92 % 20.14 C
159 01-08-2018 13:10:00 21.4 C 91 % 19.87 C
160 01-08-2018 13:15:00 21.3 C 92 % 19.95 C
161 01-08-2018 13:20:00 21.2 C 92 % 19.85 C
162 01-08-2018 13:25:00 21.2 C 92 % 19.85 C
163 01-08-2018 13:30:00 21.3 C 93 % 20.12 C
164 01-08-2018 13:35:00 21.3 C 93 % 20.12 C
165 01-08-2018 13:40:00 21.4 C 93 % 20.22 C
166 01-08-2018 13:45:00 21.3 C 93 % 20.12 C
167 01-08-2018 13:50:00 21.3 C 93 % 20.12 C
168 01-08-2018 13:55:00 21.2 C 93 % 20.02 C
169 01-08-2018 14:00:00 21.2 C 93 % 20.02 C
170 01-08-2018 14:05:00 21.2 C 93 % 20.02 C
171 01-08-2018 14:10:00 21.1 C 93 % 19.92 C
172 01-08-2018 14:15:00 21 C 93 % 19.82 C
173 01-08-2018 14:20:00 21.1 C 93 % 19.92 C
174 01-08-2018 14:25:00 21.2 C 94 % 20.19 C
175 01-08-2018 14:30:00 21.4 C 94 % 20.39 C
Sensor: Nr:Datum:Temp:Feuchte:Taupunkt:
Aussen-T/F 176 01-08-2018 14:35:00 21.6 C 94 % 20.59 C
177 01-08-2018 14:40:00 21.7 C 94 % 20.69 C
178 01-08-2018 14:45:00 21.5 C 93 % 20.32 C
179 01-08-2018 14:50:00 21.5 C 94 % 20.49 C
180 01-08-2018 14:55:00 21.4 C 93 % 20.22 C
181 01-08-2018 15:00:00 21.3 C 93 % 20.12 C
182 01-08-2018 15:05:00 21.2 C 93 % 20.02 C
183 01-08-2018 15:10:00 21 C 92 % 19.65 C
184 01-08-2018 15:15:00 20.8 C 93 % 19.63 C
185 01-08-2018 15:20:00 20.6 C 92 % 19.25 C
186 01-08-2018 15:25:00 20.4 C 92 % 19.06 C
187 01-08-2018 15:30:00 20.4 C 93 % 19.23 C
188 01-08-2018 15:35:00 20.4 C 93 % 19.23 C
189 01-08-2018 15:40:00 20.4 C 93 % 19.23 C
190 01-08-2018 15:45:00 20.4 C 94 % 19.4 C
191 01-08-2018 15:50:00 20.4 C 94 % 19.4 C
192 01-08-2018 15:55:00 20.5 C 94 % 19.5 C
193 01-08-2018 16:00:00 20.6 C 94 % 19.6 C
194 01-08-2018 16:05:00 20.6 C 94 % 19.6 C
195 01-08-2018 16:10:00 20.7 C 94 % 19.7 C
196 01-08-2018 16:15:00 20.7 C 94 % 19.7 C
197 01-08-2018 16:20:00 20.7 C 94 % 19.7 C
198 01-08-2018 16:25:00 20.8 C 94 % 19.8 C
199 01-08-2018 16:30:00 20.8 C 94 % 19.8 C
200 01-08-2018 16:35:00 20.9 C 94 % 19.9 C
Sensor: Nr:Datum:Temp:Feuchte:Taupunkt:
Aussen-T/F 201 01-08-2018 16:40:00 20.9 C 94 % 19.9 C
202 01-08-2018 16:45:00 21 C 94 % 20 C
203 01-08-2018 16:50:00 21.1 C 94 % 20.1 C
204 01-08-2018 16:55:00 21.2 C 94 % 20.19 C
205 01-08-2018 17:00:00 21.2 C 95 % 20.37 C
206 01-08-2018 17:05:00 21.2 C 94 % 20.19 C
207 01-08-2018 17:10:00 21.2 C 94 % 20.19 C
208 01-08-2018 17:15:00 21.2 C 94 % 20.19 C
209 01-08-2018 17:20:00 21.1 C 94 % 20.1 C
210 01-08-2018 17:25:00 20.9 C 94 % 19.9 C
211 01-08-2018 17:30:00 20.8 C 94 % 19.8 C
212 01-08-2018 17:35:00 20.8 C 94 % 19.8 C
213 01-08-2018 17:40:00 20.8 C 94 % 19.8 C
214 01-08-2018 17:45:00 20.9 C 95 % 20.07 C
215 01-08-2018 17:50:00 21.1 C 95 % 20.27 C
216 01-08-2018 17:55:00 21.3 C 95 % 20.47 C
217 01-08-2018 18:00:00 21.5 C 95 % 20.66 C
218 01-08-2018 18:05:00 21.9 C 95 % 21.06 C
219 01-08-2018 18:10:00 22.3 C 93 % 21.11 C
220 01-08-2018 18:15:00 22.6 C 91 % 21.05 C
221 01-08-2018 18:20:00 22.7 C 89 % 20.79 C
222 01-08-2018 18:25:00 22.9 C 88 % 20.81 C
223 01-08-2018 18:30:00 23.1 C 88 % 21 C
224 01-08-2018 18:35:00 23.4 C 90 % 21.66 C
225 01-08-2018 18:40:00 23.4 C 89 % 21.48 C
Sensor: Nr:Datum:Temp:Feuchte:Taupunkt:
Aussen-T/F 226 01-08-2018 18:45:00 23.6 C 89 % 21.68 C
227 01-08-2018 18:50:00 23.6 C 89 % 21.68 C
228 01-08-2018 18:55:00 23.6 C 89 % 21.68 C
229 01-08-2018 19:00:00 23.5 C 89 % 21.58 C
230 01-08-2018 19:05:00 23.4 C 89 % 21.48 C
231 01-08-2018 19:10:00 23.4 C 89 % 21.48 C
232 01-08-2018 19:15:00 23.3 C 89 % 21.38 C
233 01-08-2018 19:20:00 23.3 C 89 % 21.38 C
234 01-08-2018 19:25:00 23.2 C 89 % 21.28 C
235 01-08-2018 19:30:00 23.3 C 89 % 21.38 C
236 01-08-2018 19:35:00 23.2 C 89 % 21.28 C
237 01-08-2018 19:40:00 23.1 C 88 % 21 C
238 01-08-2018 19:45:00 22.9 C 88 % 20.81 C
239 01-08-2018 19:50:00 22.7 C 88 % 20.61 C
240 01-08-2018 19:55:00 22.7 C 90 % 20.97 C
241 01-08-2018 20:00:00 22.7 C 90 % 20.97 C
242 01-08-2018 20:05:00 22.7 C 90 % 20.97 C
243 01-08-2018 20:10:00 22.7 C 90 % 20.97 C
244 01-08-2018 20:15:00 22.7 C 90 % 20.97 C
245 01-08-2018 20:20:00 22.7 C 90 % 20.97 C
246 01-08-2018 20:25:00 22.7 C 90 % 20.97 C
247 01-08-2018 20:30:00 22.6 C 89 % 20.69 C
248 01-08-2018 20:35:00 22.6 C 89 % 20.69 C
249 01-08-2018 20:40:00 22.4 C 89 % 20.5 C
250 01-08-2018 20:45:00 22.3 C 89 % 20.4 C
Sensor: Nr:Datum:Temp:Feuchte:Taupunkt:
Aussen-T/F 251 01-08-2018 20:50:00 22.1 C 89 % 20.2 C
252 01-08-2018 20:55:00 21.9 C 89 % 20 C
253 01-08-2018 21:00:00 21.7 C 89 % 19.81 C
254 01-08-2018 21:05:00 21.6 C 89 % 19.71 C
255 01-08-2018 21:10:00 21.3 C 90 % 19.59 C
256 01-08-2018 21:15:00 21.1 C 90 % 19.39 C
257 01-08-2018 21:20:00 21 C 90 % 19.3 C
258 01-08-2018 21:25:00 20.8 C 90 % 19.1 C
259 01-08-2018 21:30:00 20.7 C 91 % 19.18 C
260 01-08-2018 21:35:00 20.6 C 91 % 19.08 C
261 01-08-2018 21:40:00 20.5 C 91 % 18.98 C
262 01-08-2018 21:45:00 20.4 C 92 % 19.06 C
263 01-08-2018 21:50:00 20.3 C 92 % 18.96 C
264 01-08-2018 21:55:00 20.2 C 92 % 18.86 C
265 01-08-2018 22:00:00 20.2 C 92 % 18.86 C
266 01-08-2018 22:05:00 20.1 C 92 % 18.76 C
267 01-08-2018 22:10:00 20.1 C 92 % 18.76 C
268 01-08-2018 22:15:00 20 C 93 % 18.83 C
269 01-08-2018 22:20:00 19.9 C 92 % 18.56 C
270 01-08-2018 22:25:00 19.8 C 92 % 18.46 C
271 01-08-2018 22:30:00 19.7 C 93 % 18.54 C
272 01-08-2018 22:35:00 19.6 C 93 % 18.44 C
273 01-08-2018 22:40:00 19.5 C 92 % 18.17 C
274 01-08-2018 22:45:00 19.4 C 93 % 18.24 C
275 01-08-2018 22:50:00 19.3 C 93 % 18.14 C
Sensor: Nr:Datum:Temp:Feuchte:Taupunkt:
Aussen-T/F 276 01-08-2018 22:55:00 19.3 C 93 % 18.14 C
277 01-08-2018 23:00:00 19.2 C 93 % 18.04 C
278 01-08-2018 23:05:00 19.2 C 93 % 18.04 C
279 01-08-2018 23:10:00 19.1 C 93 % 17.94 C
280 01-08-2018 23:15:00 19.1 C 93 % 17.94 C
281 01-08-2018 23:20:00 18.9 C 93 % 17.74 C
282 01-08-2018 23:25:00 18.9 C 93 % 17.74 C
283 01-08-2018 23:30:00 18.8 C 94 % 17.81 C
284 01-08-2018 23:35:00 18.8 C 94 % 17.81 C
285 01-08-2018 23:40:00 18.7 C 94 % 17.71 C
286 01-08-2018 23:45:00 18.7 C 94 % 17.71 C
287 01-08-2018 23:50:00 18.6 C 94 % 17.62 C
288 01-08-2018 23:55:00 18.5 C 94 % 17.52 C
289 02-08-2018 00:00:00 18.4 C 94 % 17.42 C
290 02-08-2018 00:05:00 18.3 C 94 % 17.32 C
291 02-08-2018 00:10:00 18.3 C 94 % 17.32 C
292 02-08-2018 00:15:00 18.3 C 94 % 17.32 C
293 02-08-2018 00:20:00 18.2 C 94 % 17.22 C
294 02-08-2018 00:25:00 18.2 C 94 % 17.22 C
295 02-08-2018 00:30:00 18.2 C 95 % 17.39 C
296 02-08-2018 00:35:00 18.1 C 94 % 17.12 C
297 02-08-2018 00:40:00 18.1 C 94 % 17.12 C
298 02-08-2018 00:45:00 18 C 94 % 17.02 C
299 02-08-2018 00:50:00 18 C 94 % 17.02 C
300 02-08-2018 00:55:00 17.9 C 95 % 17.09 C
Sensor: Nr:Datum:Temp:Feuchte:Taupunkt:
Aussen-T/F 301 02-08-2018 01:00:00 17.9 C 95 % 17.09 C
302 02-08-2018 01:05:00 17.9 C 95 % 17.09 C
303 02-08-2018 01:10:00 17.8 C 95 % 16.99 C
304 02-08-2018 01:15:00 17.8 C 95 % 16.99 C
305 02-08-2018 01:20:00 17.7 C 94 % 16.72 C
306 02-08-2018 01:25:00 17.7 C 95 % 16.89 C
307 02-08-2018 01:30:00 17.7 C 95 % 16.89 C
308 02-08-2018 01:35:00 17.7 C 95 % 16.89 C
309 02-08-2018 01:40:00 17.7 C 95 % 16.89 C
310 02-08-2018 01:45:00 17.6 C 95 % 16.79 C
311 02-08-2018 01:50:00 17.6 C 95 % 16.79 C
312 02-08-2018 01:55:00 17.7 C 95 % 16.89 C
313 02-08-2018 02:00:00 17.8 C 95 % 16.99 C
314 02-08-2018 02:05:00 17.9 C 96 % 17.25 C
315 02-08-2018 02:10:00 18.1 C 96 % 17.45 C
316 02-08-2018 02:15:00 18.2 C 96 % 17.55 C
317 02-08-2018 02:20:00 18.2 C 96 % 17.55 C
318 02-08-2018 02:25:00 18.2 C 95 % 17.39 C
319 02-08-2018 02:30:00 18.2 C 95 % 17.39 C
320 02-08-2018 02:35:00 18.1 C 95 % 17.29 C
321 02-08-2018 02:40:00 17.9 C 95 % 17.09 C
322 02-08-2018 02:45:00 17.8 C 95 % 16.99 C
323 02-08-2018 02:50:00 17.8 C 95 % 16.99 C
324 02-08-2018 02:55:00 18 C 96 % 17.35 C
325 02-08-2018 03:00:00 18 C 96 % 17.35 C
Sensor: Nr:Datum:Temp:Feuchte:Taupunkt:
Aussen-T/F 326 02-08-2018 03:05:00 17.9 C 96 % 17.25 C
327 02-08-2018 03:10:00 17.8 C 95 % 16.99 C
328 02-08-2018 03:15:00 17.8 C 95 % 16.99 C
329 02-08-2018 03:20:00 17.9 C 95 % 17.09 C
330 02-08-2018 03:25:00 18 C 96 % 17.35 C
331 02-08-2018 03:30:00 18.1 C 96 % 17.45 C
332 02-08-2018 03:35:00 18.2 C 96 % 17.55 C
333 02-08-2018 03:40:00 18.2 C 96 % 17.55 C
334 02-08-2018 03:45:00 18.2 C 96 % 17.55 C
335 02-08-2018 03:50:00 18.2 C 96 % 17.55 C
336 02-08-2018 03:55:00 18.2 C 96 % 17.55 C
337 02-08-2018 04:00:00 18.1 C 96 % 17.45 C
338 02-08-2018 04:05:00 18.1 C 96 % 17.45 C
339 02-08-2018 04:10:00 18.1 C 96 % 17.45 C
340 02-08-2018 04:15:00 18.1 C 96 % 17.45 C
341 02-08-2018 04:20:00 18.1 C 96 % 17.45 C
342 02-08-2018 04:25:00 18 C 96 % 17.35 C
343 02-08-2018 04:30:00 17.9 C 96 % 17.25 C
344 02-08-2018 04:35:00 17.9 C 96 % 17.25 C
345 02-08-2018 04:40:00 17.9 C 96 % 17.25 C
346 02-08-2018 04:45:00 17.9 C 96 % 17.25 C
347 02-08-2018 04:50:00 17.9 C 96 % 17.25 C
348 02-08-2018 04:55:00 17.9 C 96 % 17.25 C
349 02-08-2018 05:00:00 17.9 C 96 % 17.25 C
350 02-08-2018 05:05:00 17.9 C 96 % 17.25 C
Sensor: Nr:Datum:Temp:Feuchte:Taupunkt:
Aussen-T/F 351 02-08-2018 05:10:00 17.9 C 96 % 17.25 C
352 02-08-2018 05:15:00 17.8 C 96 % 17.15 C
353 02-08-2018 05:20:00 17.7 C 96 % 17.05 C
354 02-08-2018 05:25:00 17.7 C 96 % 17.05 C
355 02-08-2018 05:30:00 17.6 C 96 % 16.95 C
356 02-08-2018 05:35:00 17.5 C 95 % 16.69 C
357 02-08-2018 05:40:00 17.4 C 96 % 16.76 C
358 02-08-2018 05:45:00 17.4 C 96 % 16.76 C
359 02-08-2018 05:50:00 17.4 C 96 % 16.76 C
360 02-08-2018 05:55:00 17.4 C 96 % 16.76 C
361 02-08-2018 06:00:00 17.5 C 96 % 16.85 C
362 02-08-2018 06:05:00 17.5 C 96 % 16.85 C
363 02-08-2018 06:10:00 17.5 C 96 % 16.85 C
364 02-08-2018 06:15:00 17.5 C 96 % 16.85 C
365 02-08-2018 06:20:00 17.5 C 96 % 16.85 C
366 02-08-2018 06:25:00 17.5 C 96 % 16.85 C
367 02-08-2018 06:30:00 17.5 C 96 % 16.85 C
368 02-08-2018 06:35:00 17.4 C 96 % 16.76 C
369 02-08-2018 06:40:00 17.4 C 96 % 16.76 C
370 02-08-2018 06:45:00 17.4 C 95 % 16.59 C
371 02-08-2018 06:50:00 17.4 C 95 % 16.59 C
372 02-08-2018 06:55:00 17.4 C 95 % 16.59 C
373 02-08-2018 07:00:00 17.5 C 95 % 16.69 C
374 02-08-2018 07:05:00 17.5 C 95 % 16.69 C
375 02-08-2018 07:10:00 17.6 C 95 % 16.79 C
Sensor: Nr:Datum:Temp:Feuchte:Taupunkt:
Aussen-T/F 376 02-08-2018 07:15:00 17.6 C 95 % 16.79 C
377 02-08-2018 07:20:00 17.6 C 95 % 16.79 C
378 02-08-2018 07:25:00 17.6 C 95 % 16.79 C
379 02-08-2018 07:30:00 17.6 C 95 % 16.79 C
380 02-08-2018 07:35:00 17.6 C 95 % 16.79 C
381 02-08-2018 07:40:00 17.6 C 95 % 16.79 C
382 02-08-2018 07:45:00 17.6 C 95 % 16.79 C
383 02-08-2018 07:50:00 17.6 C 95 % 16.79 C
384 02-08-2018 07:55:00 17.7 C 95 % 16.89 C
385 02-08-2018 08:00:00 17.7 C 95 % 16.89 C
386 02-08-2018 08:05:00 17.7 C 95 % 16.89 C
387 02-08-2018 08:10:00 17.7 C 95 % 16.89 C
388 02-08-2018 08:15:00 17.7 C 95 % 16.89 C
389 02-08-2018 08:20:00 17.8 C 95 % 16.99 C
390 02-08-2018 08:25:00 17.8 C 95 % 16.99 C
391 02-08-2018 08:30:00 17.8 C 95 % 16.99 C
392 02-08-2018 08:35:00 17.8 C 95 % 16.99 C
393 02-08-2018 08:40:00 17.8 C 95 % 16.99 C
394 02-08-2018 08:45:00 17.9 C 95 % 17.09 C
395 02-08-2018 08:50:00 18 C 95 % 17.19 C
396 02-08-2018 08:55:00 18 C 95 % 17.19 C
397 02-08-2018 09:00:00 18 C 95 % 17.19 C
398 02-08-2018 09:05:00 18.1 C 95 % 17.29 C
399 02-08-2018 09:10:00 18.1 C 95 % 17.29 C
400 02-08-2018 09:15:00 18.3 C 95 % 17.48 C
Sensor: Nr:Datum:Temp:Feuchte:Taupunkt:
Aussen-T/F 401 02-08-2018 09:20:00 18.3 C 95 % 17.48 C
402 02-08-2018 09:25:00 18.4 C 95 % 17.58 C
403 02-08-2018 09:30:00 18.5 C 95 % 17.68 C
404 02-08-2018 09:35:00 18.6 C 95 % 17.78 C
405 02-08-2018 09:40:00 18.7 C 95 % 17.88 C
406 02-08-2018 09:45:00 18.9 C 95 % 18.08 C
407 02-08-2018 09:50:00 18.9 C 95 % 18.08 C
408 02-08-2018 09:55:00 18.8 C 95 % 17.98 C
409 02-08-2018 10:00:00 18.8 C 94 % 17.81 C
410 02-08-2018 10:05:00 18.8 C 94 % 17.81 C
411 02-08-2018 10:10:00 18.8 C 94 % 17.81 C
412 02-08-2018 10:15:00 18.9 C 95 % 18.08 C
413 02-08-2018 10:20:00 19.1 C 94 % 18.11 C
414 02-08-2018 10:25:00 19.2 C 94 % 18.21 C
415 02-08-2018 10:30:00 19.3 C 94 % 18.31 C
416 02-08-2018 10:35:00 19.4 C 94 % 18.41 C
417 02-08-2018 10:40:00 19.6 C 93 % 18.44 C
418 02-08-2018 10:45:00 19.7 C 93 % 18.54 C
419 02-08-2018 10:50:00 19.8 C 92 % 18.46 C
420 02-08-2018 10:55:00 20.1 C 92 % 18.76 C
421 02-08-2018 11:00:00 20.3 C 91 % 18.78 C
422 02-08-2018 11:05:00 20.6 C 90 % 18.9 C
423 02-08-2018 11:10:00 20.7 C 90 % 19 C
424 02-08-2018 11:15:00 20.9 C 90 % 19.2 C
425 02-08-2018 11:20:00 21.1 C 90 % 19.39 C
Sensor: Nr:Datum:Temp:Feuchte:Taupunkt:
Aussen-T/F 426 02-08-2018 11:25:00 21.2 C 89 % 19.31 C
427 02-08-2018 11:30:00 21.4 C 89 % 19.51 C
428 02-08-2018 11:35:00 21.6 C 89 % 19.71 C
429 02-08-2018 11:40:00 21.8 C 87 % 19.54 C
430 02-08-2018 11:45:00 22.1 C 87 % 19.83 C
431 02-08-2018 11:50:00 22.2 C 87 % 19.93 C
432 02-08-2018 11:55:00 22.3 C 84 % 19.46 C
433 02-08-2018 12:00:00 22.5 C 85 % 19.85 C
434 02-08-2018 12:05:00 22.7 C 85 % 20.05 C
435 02-08-2018 12:10:00 22.9 C 86 % 20.43 C
436 02-08-2018 12:15:00 23 C 81 % 19.56 C
437 02-08-2018 12:20:00 23.3 C 79 % 19.45 C
438 02-08-2018 12:25:00 23.7 C 81 % 20.24 C
439 02-08-2018 12:30:00 24 C 78 % 19.92 C
440 02-08-2018 12:35:00 24.4 C 73 % 19.24 C
441 02-08-2018 12:40:00 24.8 C 71 % 19.18 C
442 02-08-2018 12:45:00 25.2 C 70 % 19.34 C
443 02-08-2018 12:50:00 25.5 C 69 % 19.39 C
444 02-08-2018 12:55:00 25.8 C 70 % 19.91 C
445 02-08-2018 13:00:00 25.9 C 72 % 20.46 C
446 02-08-2018 13:05:00 26.1 C 69 % 19.96 C
447 02-08-2018 13:10:00 26.2 C 68 % 19.82 C
448 02-08-2018 13:15:00 26.3 C 68 % 19.92 C
449 02-08-2018 13:20:00 26.7 C 67 % 20.06 C
450 02-08-2018 13:25:00 26.8 C 66 % 19.91 C
Sensor: Nr:Datum:Temp:Feuchte:Taupunkt:
Aussen-T/F 451 02-08-2018 13:30:00 26.9 C 66 % 20.01 C
452 02-08-2018 13:35:00 27.1 C 64 % 19.7 C
453 02-08-2018 13:40:00 27.2 C 65 % 20.04 C
454 02-08-2018 13:45:00 27.4 C 64 % 19.98 C
455 02-08-2018 13:50:00 27.6 C 62 % 19.66 C
456 02-08-2018 13:55:00 27.7 C 63 % 20.01 C
457 02-08-2018 14:00:00 27.9 C 63 % 20.2 C
458 02-08-2018 14:05:00 28.1 C 62 % 20.13 C
459 02-08-2018 14:10:00 28.3 C 61 % 20.06 C
460 02-08-2018 14:15:00 28.3 C 61 % 20.06 C
461 02-08-2018 14:20:00 28.4 C 60 % 19.88 C
462 02-08-2018 14:25:00 28.5 C 61 % 20.24 C
463 02-08-2018 14:30:00 28.6 C 59 % 19.8 C
464 02-08-2018 14:35:00 28.7 C 61 % 20.43 C
465 02-08-2018 14:40:00 28.9 C 59 % 20.08 C
466 02-08-2018 14:45:00 29.1 C 57 % 19.71 C
467 02-08-2018 14:50:00 29.2 C 58 % 20.08 C
468 02-08-2018 14:55:00 29.5 C 57 % 20.08 C
469 02-08-2018 15:00:00 29.7 C 57 % 20.27 C
470 02-08-2018 15:05:00 29.7 C 57 % 20.27 C
471 02-08-2018 15:10:00 29.8 C 57 % 20.36 C
472 02-08-2018 15:15:00 29.9 C 55 % 19.88 C
473 02-08-2018 15:20:00 30.1 C 55 % 20.06 C
474 02-08-2018 15:25:00 30.4 C 52 % 19.43 C
475 02-08-2018 15:30:00 30.7 C 51 % 19.4 C
Sensor: Nr:Datum:Temp:Feuchte:Taupunkt:
Aussen-T/F 476 02-08-2018 15:35:00 31.1 C 51 % 19.76 C
477 02-08-2018 15:40:00 31.4 C 49 % 19.39 C
478 02-08-2018 15:45:00 31.8 C 49 % 19.76 C
479 02-08-2018 15:50:00 32.1 C 46 % 19.02 C
480 02-08-2018 15:55:00 32.2 C 45 % 18.75 C
481 02-08-2018 16:00:00 32.3 C 47 % 19.54 C
482 02-08-2018 16:05:00 32.5 C 46 % 19.38 C
483 02-08-2018 16:10:00 32.7 C 44 % 18.84 C
484 02-08-2018 16:15:00 32.8 C 40 % 17.42 C
485 02-08-2018 16:20:00 33.1 C 42 % 18.46 C
486 02-08-2018 16:25:00 33.3 C 40 % 17.86 C
487 02-08-2018 16:30:00 33.3 C 40 % 17.86 C
488 02-08-2018 16:35:00 33.3 C 42 % 18.64 C
489 02-08-2018 16:40:00 33.4 C 40 % 17.95 C
490 02-08-2018 16:45:00 33.6 C 40 % 18.13 C
491 02-08-2018 16:50:00 33.6 C 39 % 17.73 C
492 02-08-2018 16:55:00 33.8 C 40 % 18.31 C
493 02-08-2018 17:00:00 34.1 C 40 % 18.57 C
494 02-08-2018 17:05:00 34.3 C 38 % 17.93 C
495 02-08-2018 17:10:00 34.4 C 39 % 18.43 C
496 02-08-2018 17:15:00 34.3 C 40 % 18.75 C
497 02-08-2018 17:20:00 34.2 C 39 % 18.26 C
498 02-08-2018 17:25:00 34.1 C 39 % 18.17 C
499 02-08-2018 17:30:00 33.9 C 40 % 18.4 C
500 02-08-2018 17:35:00 34 C 37 % 17.25 C
Sensor: Nr:Datum:Temp:Feuchte:Taupunkt:
Aussen-T/F 501 02-08-2018 17:40:00 34.1 C 38 % 17.76 C
502 02-08-2018 17:45:00 34.3 C 38 % 17.93 C
503 02-08-2018 17:50:00 34.3 C 39 % 18.35 C
504 02-08-2018 17:55:00 34.5 C 37 % 17.69 C
505 02-08-2018 18:00:00 34.6 C 37 % 17.77 C
506 02-08-2018 18:05:00 34.5 C 36 % 17.25 C
507 02-08-2018 18:10:00 34.3 C 36 % 17.08 C
508 02-08-2018 18:15:00 34.2 C 37 % 17.42 C
509 02-08-2018 18:20:00 34.2 C 36 % 16.99 C
510 02-08-2018 18:25:00 34.3 C 37 % 17.51 C
511 02-08-2018 18:30:00 34.4 C 36 % 17.16 C
512 02-08-2018 18:35:00 34.4 C 37 % 17.6 C
513 02-08-2018 18:40:00 34.3 C 37 % 17.51 C
514 02-08-2018 18:45:00 34.3 C 37 % 17.51 C
515 02-08-2018 18:50:00 34.2 C 35 % 16.54 C
516 02-08-2018 18:55:00 34.1 C 36 % 16.9 C
517 02-08-2018 19:00:00 34.2 C 35 % 16.54 C
518 02-08-2018 19:05:00 34.2 C 36 % 16.99 C
519 02-08-2018 19:10:00 34.2 C 36 % 16.99 C
520 02-08-2018 19:15:00 34 C 37 % 17.25 C
521 02-08-2018 19:20:00 33.7 C 37 % 16.98 C
522 02-08-2018 19:25:00 33.4 C 36 % 16.29 C
523 02-08-2018 19:30:00 33.2 C 36 % 16.11 C
524 02-08-2018 19:35:00 32.9 C 36 % 15.85 C
525 02-08-2018 19:40:00 32.8 C 38 % 16.61 C
Sensor: Nr:Datum:Temp:Feuchte:Taupunkt:
Aussen-T/F 526 02-08-2018 19:45:00 32.7 C 36 % 15.67 C
527 02-08-2018 19:50:00 32.6 C 37 % 16.01 C
528 02-08-2018 19:55:00 32.4 C 38 % 16.25 C
529 02-08-2018 20:00:00 32.3 C 40 % 16.97 C
530 02-08-2018 20:05:00 32.1 C 38 % 15.99 C
531 02-08-2018 20:10:00 32 C 39 % 16.31 C
532 02-08-2018 20:15:00 31.9 C 44 % 18.12 C
533 02-08-2018 20:20:00 31.7 C 44 % 17.94 C
534 02-08-2018 20:25:00 31.3 C 45 % 17.94 C
535 02-08-2018 20:30:00 30.9 C 43 % 16.86 C
536 02-08-2018 20:35:00 30.4 C 49 % 18.48 C
537 02-08-2018 20:40:00 29.9 C 50 % 18.35 C
538 02-08-2018 20:45:00 29.4 C 53 % 18.82 C
539 02-08-2018 20:50:00 28.8 C 56 % 19.14 C
540 02-08-2018 20:55:00 28.2 C 58 % 19.15 C
541 02-08-2018 21:00:00 27.7 C 58 % 18.68 C
542 02-08-2018 21:05:00 27.2 C 58 % 18.22 C
543 02-08-2018 21:10:00 26.8 C 58 % 17.84 C
544 02-08-2018 21:15:00 26.5 C 60 % 18.1 C
545 02-08-2018 21:20:00 26.2 C 60 % 17.82 C
546 02-08-2018 21:25:00 25.9 C 61 % 17.8 C
547 02-08-2018 21:30:00 25.7 C 62 % 17.87 C
548 02-08-2018 21:35:00 25.6 C 61 % 17.52 C
549 02-08-2018 21:40:00 25.4 C 62 % 17.59 C
550 02-08-2018 21:45:00 25.3 C 61 % 17.24 C
Sensor: Nr:Datum:Temp:Feuchte:Taupunkt:
Aussen-T/F 551 02-08-2018 21:50:00 25.2 C 61 % 17.14 C
552 02-08-2018 21:55:00 25.1 C 62 % 17.31 C
553 02-08-2018 22:00:00 24.9 C 63 % 17.37 C
554 02-08-2018 22:05:00 24.8 C 63 % 17.28 C
555 02-08-2018 22:10:00 24.6 C 63 % 17.09 C
556 02-08-2018 22:15:00 24.5 C 63 % 16.99 C
557 02-08-2018 22:20:00 24.4 C 63 % 16.9 C
558 02-08-2018 22:25:00 24.3 C 66 % 17.54 C
559 02-08-2018 22:30:00 24.1 C 64 % 16.86 C
560 02-08-2018 22:35:00 24 C 65 % 17.01 C
561 02-08-2018 22:40:00 23.9 C 66 % 17.16 C
562 02-08-2018 22:45:00 23.9 C 67 % 17.4 C
563 02-08-2018 22:50:00 23.8 C 67 % 17.3 C
564 02-08-2018 22:55:00 23.8 C 67 % 17.3 C
565 02-08-2018 23:00:00 23.8 C 67 % 17.3 C
566 02-08-2018 23:05:00 23.8 C 65 % 16.83 C
567 02-08-2018 23:10:00 23.9 C 65 % 16.92 C
568 02-08-2018 23:15:00 23.9 C 66 % 17.16 C
569 02-08-2018 23:20:00 23.9 C 66 % 17.16 C
570 02-08-2018 23:25:00 23.9 C 65 % 16.92 C
571 02-08-2018 23:30:00 23.8 C 66 % 17.07 C
572 02-08-2018 23:35:00 23.8 C 67 % 17.3 C
573 02-08-2018 23:40:00 23.7 C 67 % 17.21 C
574 02-08-2018 23:45:00 23.6 C 66 % 16.88 C
575 02-08-2018 23:50:00 23.4 C 65 % 16.45 C
Sensor: Nr:Datum:Temp:Feuchte:Taupunkt:
Aussen-T/F 576 02-08-2018 23:55:00 23.4 C 67 % 16.92 C
577 03-08-2018 00:00:00 23.3 C 68 % 17.06 C
578 03-08-2018 00:05:00 23.2 C 68 % 16.97 C
579 03-08-2018 00:10:00 23.1 C 68 % 16.87 C
580 03-08-2018 00:15:00 23.1 C 69 % 17.1 C
581 03-08-2018 00:20:00 22.9 C 69 % 16.91 C
582 03-08-2018 00:25:00 22.8 C 68 % 16.59 C
583 03-08-2018 00:30:00 22.8 C 70 % 17.04 C
584 03-08-2018 00:35:00 22.7 C 70 % 16.95 C
585 03-08-2018 00:40:00 22.6 C 69 % 16.62 C
586 03-08-2018 00:45:00 22.6 C 70 % 16.85 C
587 03-08-2018 00:50:00 22.4 C 71 % 16.88 C
588 03-08-2018 00:55:00 22.4 C 71 % 16.88 C
589 03-08-2018 01:00:00 22.3 C 71 % 16.79 C
590 03-08-2018 01:05:00 22.3 C 72 % 17.01 C
591 03-08-2018 01:10:00 22.3 C 71 % 16.79 C
592 03-08-2018 01:15:00 22.2 C 72 % 16.91 C
593 03-08-2018 01:20:00 22.2 C 71 % 16.69 C
594 03-08-2018 01:25:00 22.1 C 73 % 17.03 C
595 03-08-2018 01:30:00 22 C 73 % 16.94 C
596 03-08-2018 01:35:00 21.9 C 73 % 16.84 C
597 03-08-2018 01:40:00 21.8 C 73 % 16.75 C
598 03-08-2018 01:45:00 21.7 C 74 % 16.86 C
599 03-08-2018 01:50:00 21.6 C 74 % 16.77 C
600 03-08-2018 01:55:00 21.5 C 75 % 16.88 C
Sensor: Nr:Datum:Temp:Feuchte:Taupunkt:
Aussen-T/F 601 03-08-2018 02:00:00 21.4 C 75 % 16.79 C
602 03-08-2018 02:05:00 21.3 C 76 % 16.9 C
603 03-08-2018 02:10:00 21.2 C 76 % 16.8 C
604 03-08-2018 02:15:00 21.2 C 76 % 16.8 C
605 03-08-2018 02:20:00 21.1 C 76 % 16.7 C
606 03-08-2018 02:25:00 20.9 C 76 % 16.51 C
607 03-08-2018 02:30:00 20.9 C 76 % 16.51 C
608 03-08-2018 02:35:00 20.8 C 76 % 16.41 C
609 03-08-2018 02:40:00 20.8 C 76 % 16.41 C
610 03-08-2018 02:45:00 20.8 C 77 % 16.62 C
611 03-08-2018 02:50:00 20.8 C 76 % 16.41 C
612 03-08-2018 02:55:00 20.7 C 77 % 16.52 C
613 03-08-2018 03:00:00 20.7 C 78 % 16.73 C
614 03-08-2018 03:05:00 20.5 C 78 % 16.53 C
615 03-08-2018 03:10:00 20.4 C 78 % 16.44 C
616 03-08-2018 03:15:00 20.3 C 79 % 16.54 C
617 03-08-2018 03:20:00 20.2 C 78 % 16.24 C
618 03-08-2018 03:25:00 20.1 C 79 % 16.34 C
619 03-08-2018 03:30:00 20 C 79 % 16.25 C
620 03-08-2018 03:35:00 19.9 C 79 % 16.15 C
621 03-08-2018 03:40:00 19.9 C 80 % 16.35 C
622 03-08-2018 03:45:00 19.8 C 80 % 16.25 C
623 03-08-2018 03:50:00 19.8 C 80 % 16.25 C
624 03-08-2018 03:55:00 19.7 C 80 % 16.15 C
625 03-08-2018 04:00:00 19.7 C 80 % 16.15 C
Sensor: Nr:Datum:Temp:Feuchte:Taupunkt:
Aussen-T/F 626 03-08-2018 04:05:00 19.6 C 81 % 16.25 C
627 03-08-2018 04:10:00 19.5 C 81 % 16.15 C
628 03-08-2018 04:15:00 19.4 C 81 % 16.06 C
629 03-08-2018 04:20:00 19.4 C 81 % 16.06 C
630 03-08-2018 04:25:00 19.4 C 81 % 16.06 C
631 03-08-2018 04:30:00 19.3 C 81 % 15.96 C
632 03-08-2018 04:35:00 19.3 C 82 % 16.15 C
633 03-08-2018 04:40:00 19.3 C 81 % 15.96 C
634 03-08-2018 04:45:00 19.3 C 81 % 15.96 C
635 03-08-2018 04:50:00 19.3 C 81 % 15.96 C
636 03-08-2018 04:55:00 19.3 C 81 % 15.96 C
637 03-08-2018 05:00:00 19.2 C 81 % 15.86 C
638 03-08-2018 05:05:00 19.2 C 82 % 16.05 C
639 03-08-2018 05:10:00 19.1 C 82 % 15.96 C
640 03-08-2018 05:15:00 18.9 C 82 % 15.76 C
641 03-08-2018 05:20:00 18.9 C 82 % 15.76 C
642 03-08-2018 05:25:00 18.9 C 83 % 15.95 C
643 03-08-2018 05:30:00 18.8 C 83 % 15.85 C
644 03-08-2018 05:35:00 18.8 C 83 % 15.85 C
645 03-08-2018 05:40:00 18.7 C 83 % 15.75 C
646 03-08-2018 05:45:00 18.7 C 84 % 15.94 C
647 03-08-2018 05:50:00 18.6 C 83 % 15.66 C
648 03-08-2018 05:55:00 18.6 C 83 % 15.66 C
649 03-08-2018 06:00:00 18.5 C 84 % 15.75 C
650 03-08-2018 06:05:00 18.4 C 84 % 15.65 C
Sensor: Nr:Datum:Temp:Feuchte:Taupunkt:
Aussen-T/F 651 03-08-2018 06:10:00 18.4 C 84 % 15.65 C
652 03-08-2018 06:15:00 18.4 C 85 % 15.83 C
653 03-08-2018 06:20:00 18.3 C 84 % 15.55 C
654 03-08-2018 06:25:00 18.3 C 85 % 15.74 C
655 03-08-2018 06:30:00 18.3 C 85 % 15.74 C
656 03-08-2018 06:35:00 18.3 C 85 % 15.74 C
657 03-08-2018 06:40:00 18.3 C 85 % 15.74 C
658 03-08-2018 06:45:00 18.3 C 85 % 15.74 C
659 03-08-2018 06:50:00 18.3 C 85 % 15.74 C
660 03-08-2018 06:55:00 18.3 C 85 % 15.74 C
661 03-08-2018 07:00:00 18.3 C 86 % 15.92 C
662 03-08-2018 07:05:00 18.3 C 86 % 15.92 C
663 03-08-2018 07:10:00 18.3 C 86 % 15.92 C
664 03-08-2018 07:15:00 18.4 C 86 % 16.02 C
665 03-08-2018 07:20:00 18.4 C 86 % 16.02 C
666 03-08-2018 07:25:00 18.5 C 86 % 16.11 C
667 03-08-2018 07:30:00 18.5 C 87 % 16.3 C
668 03-08-2018 07:35:00 18.6 C 87 % 16.39 C
669 03-08-2018 07:40:00 18.6 C 87 % 16.39 C
670 03-08-2018 07:45:00 18.7 C 87 % 16.49 C
671 03-08-2018 07:50:00 18.8 C 87 % 16.59 C
672 03-08-2018 07:55:00 18.8 C 87 % 16.59 C
673 03-08-2018 08:00:00 18.9 C 87 % 16.69 C
674 03-08-2018 08:05:00 19 C 86 % 16.6 C
675 03-08-2018 08:10:00 19.2 C 86 % 16.8 C
Sensor: Nr:Datum:Temp:Feuchte:Taupunkt:
Aussen-T/F 676 03-08-2018 08:15:00 19.3 C 86 % 16.9 C
677 03-08-2018 08:20:00 19.4 C 85 % 16.81 C
678 03-08-2018 08:25:00 19.4 C 85 % 16.81 C
679 03-08-2018 08:30:00 19.6 C 86 % 17.19 C
680 03-08-2018 08:35:00 19.7 C 85 % 17.11 C
681 03-08-2018 08:40:00 19.8 C 86 % 17.39 C
682 03-08-2018 08:45:00 19.9 C 85 % 17.3 C
683 03-08-2018 08:50:00 20.1 C 84 % 17.31 C
684 03-08-2018 08:55:00 20.2 C 85 % 17.6 C
685 03-08-2018 09:00:00 20.3 C 85 % 17.7 C
686 03-08-2018 09:05:00 20.4 C 84 % 17.61 C
687 03-08-2018 09:10:00 20.6 C 84 % 17.8 C
688 03-08-2018 09:15:00 20.7 C 84 % 17.9 C
689 03-08-2018 09:20:00 20.8 C 84 % 18 C
690 03-08-2018 09:25:00 20.9 C 84 % 18.09 C
691 03-08-2018 09:30:00 21 C 83 % 18 C
692 03-08-2018 09:35:00 21.1 C 83 % 18.1 C
693 03-08-2018 09:40:00 21.3 C 81 % 17.91 C
694 03-08-2018 09:45:00 21.5 C 81 % 18.1 C
695 03-08-2018 09:50:00 21.7 C 79 % 17.9 C
696 03-08-2018 09:55:00 21.9 C 80 % 18.29 C
697 03-08-2018 10:00:00 22.2 C 79 % 18.38 C
698 03-08-2018 10:05:00 22.4 C 78 % 18.37 C
699 03-08-2018 10:10:00 22.6 C 78 % 18.57 C
700 03-08-2018 10:15:00 22.8 C 79 % 18.97 C
Sensor: Nr:Datum:Temp:Feuchte:Taupunkt:
Aussen-T/F 701 03-08-2018 10:20:00 22.9 C 76 % 18.44 C
702 03-08-2018 10:25:00 23.2 C 77 % 18.94 C
703 03-08-2018 10:30:00 23.4 C 76 % 18.93 C
704 03-08-2018 10:35:00 23.7 C 75 % 19 C
705 03-08-2018 10:40:00 23.9 C 75 % 19.2 C
706 03-08-2018 10:45:00 24.3 C 75 % 19.58 C
707 03-08-2018 10:50:00 24.6 C 73 % 19.44 C
708 03-08-2018 10:55:00 24.8 C 73 % 19.63 C
709 03-08-2018 11:00:00 25 C 71 % 19.37 C
710 03-08-2018 11:05:00 25.2 C 69 % 19.11 C
711 03-08-2018 11:10:00 25.7 C 67 % 19.11 C
712 03-08-2018 11:15:00 26 C 66 % 19.15 C
713 03-08-2018 11:20:00 26.3 C 69 % 20.16 C
714 03-08-2018 11:25:00 26.4 C 66 % 19.53 C
715 03-08-2018 11:30:00 26.8 C 63 % 19.16 C
716 03-08-2018 11:35:00 27 C 64 % 19.61 C
717 03-08-2018 11:40:00 27.2 C 63 % 19.54 C
718 03-08-2018 11:45:00 27.3 C 63 % 19.63 C
719 03-08-2018 11:50:00 27.4 C 62 % 19.47 C
720 03-08-2018 11:55:00 27.6 C 62 % 19.66 C
721 03-08-2018 12:00:00 27.8 C 61 % 19.59 C
722 03-08-2018 12:05:00 28 C 59 % 19.24 C
723 03-08-2018 12:10:00 28.3 C 59 % 19.52 C
724 03-08-2018 12:15:00 28.6 C 59 % 19.8 C
725 03-08-2018 12:20:00 28.8 C 58 % 19.71 C
Sensor: Nr:Datum:Temp:Feuchte:Taupunkt:
Aussen-T/F 726 03-08-2018 12:25:00 29.1 C 57 % 19.71 C
727 03-08-2018 12:30:00 29.3 C 55 % 19.32 C
728 03-08-2018 12:35:00 29.4 C 58 % 20.27 C
729 03-08-2018 12:40:00 29.5 C 55 % 19.5 C
730 03-08-2018 12:45:00 29.7 C 52 % 18.79 C
731 03-08-2018 12:50:00 30.1 C 50 % 18.53 C
732 03-08-2018 12:55:00 30.3 C 50 % 18.71 C
733 03-08-2018 13:00:00 30.5 C 49 % 18.57 C
734 03-08-2018 13:05:00 30.8 C 47 % 18.18 C
735 03-08-2018 13:10:00 30.9 C 48 % 18.61 C
736 03-08-2018 13:15:00 31.1 C 47 % 18.45 C
737 03-08-2018 13:20:00 31.3 C 47 % 18.63 C
738 03-08-2018 13:25:00 31.4 C 46 % 18.38 C
739 03-08-2018 13:30:00 31.6 C 46 % 18.56 C
740 03-08-2018 13:35:00 31.7 C 45 % 18.3 C
741 03-08-2018 13:40:00 31.6 C 44 % 17.85 C
742 03-08-2018 13:45:00 31.6 C 44 % 17.85 C
743 03-08-2018 13:50:00 31.7 C 43 % 17.58 C
744 03-08-2018 13:55:00 31.9 C 43 % 17.76 C
745 03-08-2018 14:00:00 32.1 C 43 % 17.94 C
746 03-08-2018 14:05:00 32.3 C 43 % 18.12 C
747 03-08-2018 14:10:00 32.3 C 41 % 17.36 C
748 03-08-2018 14:15:00 32.4 C 43 % 18.21 C
749 03-08-2018 14:20:00 32.6 C 41 % 17.63 C
750 03-08-2018 14:25:00 32.6 C 40 % 17.24 C
Sensor: Nr:Datum:Temp:Feuchte:Taupunkt:
Aussen-T/F 751 03-08-2018 14:30:00 32.6 C 40 % 17.24 C
752 03-08-2018 14:35:00 32.7 C 41 % 17.72 C
753 03-08-2018 14:40:00 32.9 C 39 % 17.11 C
754 03-08-2018 14:45:00 33 C 40 % 17.59 C
755 03-08-2018 14:50:00 33.2 C 38 % 16.96 C
756 03-08-2018 14:55:00 33.2 C 37 % 16.54 C
757 03-08-2018 15:00:00 33.3 C 38 % 17.05 C
758 03-08-2018 15:05:00 33.4 C 38 % 17.14 C
759 03-08-2018 15:10:00 33.6 C 38 % 17.31 C
760 03-08-2018 15:15:00 33.8 C 37 % 17.07 C
761 03-08-2018 15:20:00 33.9 C 38 % 17.58 C
762 03-08-2018 15:25:00 34.1 C 36 % 16.9 C
763 03-08-2018 15:30:00 34.4 C 37 % 17.6 C
764 03-08-2018 15:35:00 34.8 C 37 % 17.95 C
765 03-08-2018 15:40:00 35.2 C 34 % 16.96 C
766 03-08-2018 15:45:00 35.4 C 35 % 17.59 C
767 03-08-2018 15:50:00 35.4 C 34 % 17.13 C
768 03-08-2018 15:55:00 35.4 C 34 % 17.13 C
769 03-08-2018 16:00:00 35.4 C 34 % 17.13 C
770 03-08-2018 16:05:00 35.7 C 34 % 17.4 C
771 03-08-2018 16:10:00 35.9 C 33 % 17.1 C
772 03-08-2018 16:15:00 35.8 C 32 % 16.53 C
773 03-08-2018 16:20:00 35.6 C 33 % 16.84 C
774 03-08-2018 16:25:00 35.7 C 33 % 16.92 C
775 03-08-2018 16:30:00 36.1 C 33 % 17.27 C
Sensor: Nr:Datum:Temp:Feuchte:Taupunkt:
Aussen-T/F 776 03-08-2018 16:35:00 36.2 C 33 % 17.36 C
777 03-08-2018 16:40:00 36.4 C 32 % 17.04 C
778 03-08-2018 16:45:00 36.6 C 32 % 17.22 C
779 03-08-2018 16:50:00 36.8 C 32 % 17.39 C
780 03-08-2018 16:55:00 36.9 C 32 % 17.48 C
781 03-08-2018 17:00:00 37 C 32 % 17.56 C
782 03-08-2018 17:05:00 36.9 C 31 % 16.97 C
783 03-08-2018 17:10:00 36.2 C 32 % 16.87 C
784 03-08-2018 17:15:00 35.5 C 33 % 16.75 C
785 03-08-2018 17:20:00 35.2 C 33 % 16.49 C
786 03-08-2018 17:25:00 35.2 C 33 % 16.49 C
787 03-08-2018 17:30:00 35.6 C 33 % 16.84 C
788 03-08-2018 17:35:00 36 C 31 % 16.2 C
789 03-08-2018 17:40:00 36.2 C 31 % 16.37 C
790 03-08-2018 17:45:00 35.9 C 32 % 16.61 C
791 03-08-2018 17:50:00 35.9 C 32 % 16.61 C
792 03-08-2018 17:55:00 36.2 C 31 % 16.37 C
793 03-08-2018 18:00:00 36.6 C 30 % 16.2 C
794 03-08-2018 18:05:00 36.3 C 30 % 15.94 C
795 03-08-2018 18:10:00 36.2 C 30 % 15.86 C
796 03-08-2018 18:15:00 36.3 C 31 % 16.46 C
797 03-08-2018 18:20:00 36.4 C 30 % 16.03 C
798 03-08-2018 18:25:00 36.4 C 29 % 15.5 C
799 03-08-2018 18:30:00 36.4 C 30 % 16.03 C
800 03-08-2018 18:35:00 36.7 C 29 % 15.76 C
Sensor: Nr:Datum:Temp:Feuchte:Taupunkt:
Aussen-T/F 801 03-08-2018 18:40:00 36.9 C 29 % 15.93 C
802 03-08-2018 18:45:00 37.1 C 28 % 15.55 C
803 03-08-2018 18:50:00 37 C 29 % 16.01 C
804 03-08-2018 18:55:00 37 C 30 % 16.54 C
805 03-08-2018 19:00:00 36.9 C 30 % 16.46 C
806 03-08-2018 19:05:00 36.8 C 29 % 15.84 C
807 03-08-2018 19:10:00 36.6 C 29 % 15.67 C
808 03-08-2018 19:15:00 36.3 C 30 % 15.94 C
809 03-08-2018 19:20:00 36.1 C 29 % 15.24 C
810 03-08-2018 19:25:00 35.8 C 31 % 16.03 C
811 03-08-2018 19:30:00 35.6 C 32 % 16.35 C
812 03-08-2018 19:35:00 35.4 C 31 % 15.68 C
813 03-08-2018 19:40:00 35.2 C 31 % 15.51 C
814 03-08-2018 19:45:00 35.1 C 34 % 16.87 C
815 03-08-2018 19:50:00 35 C 33 % 16.32 C
816 03-08-2018 19:55:00 34.8 C 33 % 16.14 C
817 03-08-2018 20:00:00 34.7 C 33 % 16.06 C
818 03-08-2018 20:05:00 34.5 C 34 % 16.35 C
819 03-08-2018 20:10:00 34.3 C 39 % 18.35 C
820 03-08-2018 20:15:00 34.1 C 40 % 18.57 C
821 03-08-2018 20:20:00 33.6 C 42 % 18.91 C
822 03-08-2018 20:25:00 33.2 C 43 % 18.93 C
823 03-08-2018 20:30:00 32.6 C 43 % 18.39 C
824 03-08-2018 20:35:00 31.9 C 46 % 18.83 C
825 03-08-2018 20:40:00 31.3 C 47 % 18.63 C
Sensor: Nr:Datum:Temp:Feuchte:Taupunkt:
Aussen-T/F 826 03-08-2018 20:45:00 30.8 C 48 % 18.52 C
827 03-08-2018 20:50:00 30.2 C 50 % 18.62 C
828 03-08-2018 20:55:00 29.7 C 50 % 18.16 C
829 03-08-2018 21:00:00 29.3 C 52 % 18.42 C
830 03-08-2018 21:05:00 28.9 C 52 % 18.05 C
831 03-08-2018 21:10:00 28.6 C 53 % 18.08 C
832 03-08-2018 21:15:00 28.3 C 53 % 17.8 C
833 03-08-2018 21:20:00 28.1 C 55 % 18.21 C
834 03-08-2018 21:25:00 27.8 C 56 % 18.22 C
835 03-08-2018 21:30:00 27.6 C 55 % 17.74 C
836 03-08-2018 21:35:00 27.5 C 54 % 17.36 C
837 03-08-2018 21:40:00 27.4 C 55 % 17.56 C
838 03-08-2018 21:45:00 27.3 C 55 % 17.47 C
839 03-08-2018 21:50:00 27.2 C 55 % 17.37 C
840 03-08-2018 21:55:00 27.1 C 56 % 17.57 C
841 03-08-2018 22:00:00 26.9 C 57 % 17.66 C
842 03-08-2018 22:05:00 26.8 C 56 % 17.29 C
843 03-08-2018 22:10:00 26.7 C 58 % 17.75 C
844 03-08-2018 22:15:00 26.5 C 60 % 18.1 C
845 03-08-2018 22:20:00 26.3 C 61 % 18.18 C
846 03-08-2018 22:25:00 26.1 C 60 % 17.73 C
847 03-08-2018 22:30:00 25.9 C 60 % 17.54 C
848 03-08-2018 22:35:00 25.8 C 60 % 17.45 C
849 03-08-2018 22:40:00 25.7 C 61 % 17.61 C
850 03-08-2018 22:45:00 25.7 C 60 % 17.35 C
Sensor: Nr:Datum:Temp:Feuchte:Taupunkt:
Aussen-T/F 851 03-08-2018 22:50:00 25.7 C 59 % 17.09 C
852 03-08-2018 22:55:00 25.8 C 61 % 17.71 C
853 03-08-2018 23:00:00 25.7 C 59 % 17.09 C
854 03-08-2018 23:05:00 25.7 C 60 % 17.35 C
855 03-08-2018 23:10:00 25.6 C 61 % 17.52 C
856 03-08-2018 23:15:00 25.5 C 62 % 17.68 C
857 03-08-2018 23:20:00 25.4 C 61 % 17.33 C
858 03-08-2018 23:25:00 25.3 C 61 % 17.24 C
859 03-08-2018 23:30:00 25.2 C 64 % 17.9 C
860 03-08-2018 23:35:00 25 C 64 % 17.72 C
861 03-08-2018 23:40:00 24.8 C 63 % 17.28 C
862 03-08-2018 23:45:00 24.7 C 65 % 17.68 C
863 03-08-2018 23:50:00 24.5 C 66 % 17.73 C
864 03-08-2018 23:55:00 24.3 C 65 % 17.3 C
865 04-08-2018 00:00:00 24.2 C 65 % 17.2 C
866 04-08-2018 00:05:00 24.1 C 66 % 17.35 C
867 04-08-2018 00:10:00 23.8 C 65 % 16.83 C
868 04-08-2018 00:15:00 23.7 C 65 % 16.73 C
869 04-08-2018 00:20:00 23.6 C 67 % 17.11 C
870 04-08-2018 00:25:00 23.6 C 68 % 17.35 C
871 04-08-2018 00:30:00 23.6 C 68 % 17.35 C
872 04-08-2018 00:35:00 23.4 C 68 % 17.16 C
873 04-08-2018 00:40:00 23.2 C 68 % 16.97 C
874 04-08-2018 00:45:00 22.9 C 69 % 16.91 C
875 04-08-2018 00:50:00 22.7 C 69 % 16.72 C
Sensor: Nr:Datum:Temp:Feuchte:Taupunkt:
Aussen-T/F 876 04-08-2018 00:55:00 22.6 C 70 % 16.85 C
877 04-08-2018 01:00:00 22.6 C 70 % 16.85 C
878 04-08-2018 01:05:00 22.4 C 70 % 16.66 C
879 04-08-2018 01:10:00 22.3 C 71 % 16.79 C
880 04-08-2018 01:15:00 22.1 C 72 % 16.82 C
881 04-08-2018 01:20:00 22.1 C 73 % 17.03 C
882 04-08-2018 01:25:00 22 C 72 % 16.72 C
883 04-08-2018 01:30:00 21.8 C 73 % 16.75 C
884 04-08-2018 01:35:00 21.7 C 73 % 16.65 C
885 04-08-2018 01:40:00 21.7 C 74 % 16.86 C
886 04-08-2018 01:45:00 21.6 C 73 % 16.55 C
887 04-08-2018 01:50:00 21.5 C 74 % 16.67 C
888 04-08-2018 01:55:00 21.4 C 74 % 16.57 C
889 04-08-2018 02:00:00 21.3 C 75 % 16.69 C
890 04-08-2018 02:05:00 21.2 C 74 % 16.38 C
891 04-08-2018 02:10:00 21.2 C 74 % 16.38 C
892 04-08-2018 02:15:00 21.1 C 75 % 16.5 C
893 04-08-2018 02:20:00 21.1 C 76 % 16.7 C
894 04-08-2018 02:25:00 21.1 C 75 % 16.5 C
895 04-08-2018 02:30:00 21 C 76 % 16.61 C
896 04-08-2018 02:35:00 20.9 C 75 % 16.3 C
897 04-08-2018 02:40:00 20.9 C 75 % 16.3 C
898 04-08-2018 02:45:00 20.9 C 76 % 16.51 C
899 04-08-2018 02:50:00 20.9 C 75 % 16.3 C
900 04-08-2018 02:55:00 20.8 C 76 % 16.41 C
Sensor: Nr:Datum:Temp:Feuchte:Taupunkt:
Aussen-T/F 901 04-08-2018 03:00:00 20.8 C 76 % 16.41 C
902 04-08-2018 03:05:00 20.7 C 76 % 16.32 C
903 04-08-2018 03:10:00 20.7 C 76 % 16.32 C
904 04-08-2018 03:15:00 20.7 C 76 % 16.32 C
905 04-08-2018 03:20:00 20.6 C 76 % 16.22 C
906 04-08-2018 03:25:00 20.6 C 77 % 16.43 C
907 04-08-2018 03:30:00 20.5 C 77 % 16.33 C
908 04-08-2018 03:35:00 20.4 C 78 % 16.44 C
909 04-08-2018 03:40:00 20.4 C 78 % 16.44 C
910 04-08-2018 03:45:00 20.4 C 78 % 16.44 C
911 04-08-2018 03:50:00 20.4 C 78 % 16.44 C
912 04-08-2018 03:55:00 20.3 C 78 % 16.34 C
913 04-08-2018 04:00:00 20.2 C 78 % 16.24 C
914 04-08-2018 04:05:00 20.1 C 79 % 16.34 C
915 04-08-2018 04:10:00 20 C 80 % 16.44 C
916 04-08-2018 04:15:00 19.9 C 79 % 16.15 C
917 04-08-2018 04:20:00 19.9 C 80 % 16.35 C
918 04-08-2018 04:25:00 19.9 C 80 % 16.35 C
919 04-08-2018 04:30:00 19.8 C 80 % 16.25 C
920 04-08-2018 04:35:00 19.8 C 80 % 16.25 C
921 04-08-2018 04:40:00 19.8 C 80 % 16.25 C
922 04-08-2018 04:45:00 19.7 C 80 % 16.15 C
923 04-08-2018 04:50:00 19.7 C 81 % 16.35 C
924 04-08-2018 04:55:00 19.6 C 81 % 16.25 C
925 04-08-2018 05:00:00 19.6 C 81 % 16.25 C
Sensor: Nr:Datum:Temp:Feuchte:Taupunkt:
Aussen-T/F 926 04-08-2018 05:05:00 19.6 C 82 % 16.44 C
927 04-08-2018 05:10:00 19.6 C 82 % 16.44 C
928 04-08-2018 05:15:00 19.6 C 82 % 16.44 C
929 04-08-2018 05:20:00 19.6 C 82 % 16.44 C
930 04-08-2018 05:25:00 19.6 C 82 % 16.44 C
931 04-08-2018 05:30:00 19.6 C 82 % 16.44 C
932 04-08-2018 05:35:00 19.7 C 82 % 16.54 C
933 04-08-2018 05:40:00 19.7 C 82 % 16.54 C
934 04-08-2018 05:45:00 19.7 C 82 % 16.54 C
935 04-08-2018 05:50:00 19.7 C 81 % 16.35 C
936 04-08-2018 05:55:00 19.7 C 81 % 16.35 C
937 04-08-2018 06:00:00 19.8 C 81 % 16.45 C
938 04-08-2018 06:05:00 19.8 C 81 % 16.45 C
939 04-08-2018 06:10:00 19.8 C 81 % 16.45 C
940 04-08-2018 06:15:00 19.8 C 81 % 16.45 C
941 04-08-2018 06:20:00 19.8 C 81 % 16.45 C
942 04-08-2018 06:25:00 19.7 C 82 % 16.54 C
943 04-08-2018 06:30:00 19.6 C 82 % 16.44 C
944 04-08-2018 06:35:00 19.6 C 82 % 16.44 C
945 04-08-2018 06:40:00 19.4 C 82 % 16.25 C
946 04-08-2018 06:45:00 19.4 C 83 % 16.44 C
947 04-08-2018 06:50:00 19.4 C 83 % 16.44 C
948 04-08-2018 06:55:00 19.4 C 83 % 16.44 C
949 04-08-2018 07:00:00 19.4 C 84 % 16.63 C
950 04-08-2018 07:05:00 19.4 C 84 % 16.63 C
Sensor: Nr:Datum:Temp:Feuchte:Taupunkt:
Aussen-T/F 951 04-08-2018 07:10:00 19.5 C 84 % 16.72 C
952 04-08-2018 07:15:00 19.6 C 84 % 16.82 C
953 04-08-2018 07:20:00 19.7 C 84 % 16.92 C
954 04-08-2018 07:25:00 19.8 C 83 % 16.83 C
955 04-08-2018 07:30:00 19.9 C 83 % 16.93 C
956 04-08-2018 07:35:00 20.1 C 83 % 17.12 C
957 04-08-2018 07:40:00 20.2 C 82 % 17.03 C
958 04-08-2018 07:45:00 20.2 C 82 % 17.03 C
959 04-08-2018 07:50:00 20.3 C 82 % 17.13 C
960 04-08-2018 07:55:00 20.4 C 82 % 17.22 C
961 04-08-2018 08:00:00 20.4 C 82 % 17.22 C
962 04-08-2018 08:05:00 20.5 C 83 % 17.51 C
963 04-08-2018 08:10:00 20.6 C 83 % 17.61 C
964 04-08-2018 08:15:00 20.7 C 82 % 17.52 C
965 04-08-2018 08:20:00 20.8 C 82 % 17.61 C
966 04-08-2018 08:25:00 20.8 C 82 % 17.61 C
967 04-08-2018 08:30:00 20.9 C 82 % 17.71 C
968 04-08-2018 08:35:00 21 C 82 % 17.81 C
969 04-08-2018 08:40:00 21.1 C 81 % 17.71 C
970 04-08-2018 08:45:00 21.2 C 81 % 17.81 C
971 04-08-2018 08:50:00 21.3 C 82 % 18.1 C
972 04-08-2018 08:55:00 21.5 C 81 % 18.1 C
973 04-08-2018 09:00:00 21.7 C 79 % 17.9 C
974 04-08-2018 09:05:00 21.9 C 81 % 18.49 C
975 04-08-2018 09:10:00 22.1 C 79 % 18.29 C
Sensor: Nr:Datum:Temp:Feuchte:Taupunkt:
Aussen-T/F 976 04-08-2018 09:15:00 22.3 C 78 % 18.28 C
977 04-08-2018 09:20:00 22.6 C 77 % 18.36 C
978 04-08-2018 09:25:00 23 C 74 % 18.12 C
979 04-08-2018 09:30:00 23.5 C 71 % 17.94 C
980 04-08-2018 09:35:00 24.1 C 70 % 18.29 C
981 04-08-2018 09:40:00 24.5 C 68 % 18.2 C
982 04-08-2018 09:45:00 24.9 C 66 % 18.11 C
983 04-08-2018 09:50:00 25.2 C 65 % 18.15 C
984 04-08-2018 09:55:00 25.6 C 65 % 18.53 C
985 04-08-2018 10:00:00 25.8 C 63 % 18.22 C
986 04-08-2018 10:05:00 26.1 C 63 % 18.5 C
987 04-08-2018 10:10:00 26.1 C 62 % 18.25 C
988 04-08-2018 10:15:00 26.1 C 62 % 18.25 C
989 04-08-2018 10:20:00 26.1 C 62 % 18.25 C
990 04-08-2018 10:25:00 26 C 62 % 18.15 C
991 04-08-2018 10:30:00 25.9 C 62 % 18.06 C
992 04-08-2018 10:35:00 26 C 62 % 18.15 C
993 04-08-2018 10:40:00 26.1 C 64 % 18.76 C
994 04-08-2018 10:55:00 26.5 C 59 % 17.83 C
995 04-08-2018 11:00:00 26.7 C 60 % 18.29 C
996 04-08-2018 11:05:00 26.9 C 59 % 18.21 C
997 04-08-2018 11:10:00 27.2 C 58 % 18.22 C
998 04-08-2018 11:15:00 27.4 C 56 % 17.84 C
999 04-08-2018 11:20:00 27.7 C 55 % 17.84 C
1000 04-08-2018 11:55:00 28.8 C 54 % 18.56 C
Sensor: Nr:Datum:Temp:Feuchte:Taupunkt:
Aussen-T/F 1001 04-08-2018 12:00:00 28.8 C 54 % 18.56 C
1002 04-08-2018 12:05:00 28.9 C 53 % 18.36 C
1003 04-08-2018 12:10:00 28.9 C 53 % 18.36 C
1004 04-08-2018 12:15:00 28.9 C 53 % 18.36 C
1005 04-08-2018 12:20:00 29 C 53 % 18.45 C
1006 04-08-2018 12:25:00 29.1 C 53 % 18.54 C
1007 04-08-2018 12:30:00 29.1 C 52 % 18.24 C
1008 04-08-2018 12:35:00 29.2 C 53 % 18.63 C
1009 04-08-2018 12:40:00 29.3 C 52 % 18.42 C
1010 04-08-2018 12:45:00 29.2 C 53 % 18.63 C
1011 04-08-2018 12:50:00 29.3 C 52 % 18.42 C
1012 04-08-2018 12:55:00 29.4 C 52 % 18.51 C
1013 04-08-2018 13:00:00 29.5 C 53 % 18.91 C
1014 04-08-2018 13:05:00 29.7 C 50 % 18.16 C
1015 04-08-2018 13:10:00 29.9 C 47 % 17.36 C
1016 04-08-2018 13:15:00 30.1 C 47 % 17.54 C
1017 04-08-2018 13:20:00 30.3 C 47 % 17.73 C
1018 04-08-2018 13:25:00 30.4 C 47 % 17.82 C
1019 04-08-2018 13:30:00 30.6 C 46 % 17.66 C
1020 04-08-2018 13:35:00 30.8 C 45 % 17.49 C
1021 04-08-2018 13:40:00 30.8 C 45 % 17.49 C
1022 04-08-2018 13:45:00 30.9 C 45 % 17.58 C
1023 04-08-2018 13:50:00 30.9 C 45 % 17.58 C
1024 04-08-2018 13:55:00 31.1 C 45 % 17.76 C
1025 04-08-2018 14:00:00 31.3 C 45 % 17.94 C
Sensor: Nr:Datum:Temp:Feuchte:Taupunkt:
Aussen-T/F 1026 04-08-2018 14:05:00 31.4 C 44 % 17.67 C
1027 04-08-2018 14:10:00 31.4 C 43 % 17.31 C
1028 04-08-2018 14:15:00 31.4 C 44 % 17.67 C
1029 04-08-2018 14:20:00 31.6 C 44 % 17.85 C
1030 04-08-2018 14:25:00 31.7 C 45 % 18.3 C
1031 04-08-2018 14:30:00 31.8 C 45 % 18.39 C
1032 04-08-2018 14:35:00 31.9 C 43 % 17.76 C
1033 04-08-2018 14:40:00 32.1 C 43 % 17.94 C
1034 04-08-2018 14:45:00 32.2 C 42 % 17.65 C
1035 04-08-2018 14:50:00 32.3 C 42 % 17.74 C
1036 04-08-2018 14:55:00 32.4 C 41 % 17.45 C
1037 04-08-2018 15:00:00 32.6 C 41 % 17.63 C
1038 04-08-2018 15:05:00 32.9 C 39 % 17.11 C
1039 04-08-2018 15:10:00 33.1 C 39 % 17.28 C
1040 04-08-2018 15:15:00 33.1 C 40 % 17.68 C
1041 04-08-2018 15:20:00 33.3 C 38 % 17.05 C
1042 04-08-2018 15:25:00 33.4 C 38 % 17.14 C
1043 04-08-2018 15:30:00 33.6 C 37 % 16.89 C
1044 04-08-2018 15:35:00 33.7 C 37 % 16.98 C
1045 04-08-2018 15:40:00 33.8 C 35 % 16.19 C
1046 04-08-2018 15:45:00 34 C 34 % 15.92 C
1047 04-08-2018 15:50:00 34.2 C 35 % 16.54 C
1048 04-08-2018 15:55:00 34.6 C 32 % 15.49 C
1049 04-08-2018 16:00:00 34.7 C 32 % 15.58 C
1050 04-08-2018 16:05:00 34.7 C 31 % 15.08 C
Sensor: Nr:Datum:Temp:Feuchte:Taupunkt:
Aussen-T/F 1051 04-08-2018 16:10:00 34.8 C 32 % 15.66 C
1052 04-08-2018 16:15:00 34.9 C 31 % 15.25 C
1053 04-08-2018 16:20:00 34.9 C 30 % 14.74 C
1054 04-08-2018 16:25:00 34.7 C 31 % 15.08 C
1055 04-08-2018 16:30:00 34.8 C 31 % 15.17 C
1056 04-08-2018 16:35:00 34.8 C 31 % 15.17 C
1057 04-08-2018 16:40:00 34.9 C 30 % 14.74 C
1058 04-08-2018 16:45:00 34.7 C 29 % 14.05 C
1059 04-08-2018 16:50:00 34.7 C 30 % 14.57 C
1060 04-08-2018 16:55:00 34.8 C 29 % 14.13 C
1061 04-08-2018 17:00:00 34.9 C 30 % 14.74 C
1062 04-08-2018 17:05:00 35 C 29 % 14.3 C
1063 04-08-2018 17:10:00 35 C 29 % 14.3 C
1064 04-08-2018 17:15:00 34.8 C 29 % 14.13 C
1065 04-08-2018 17:20:00 34.8 C 29 % 14.13 C
1066 04-08-2018 17:25:00 34.7 C 29 % 14.05 C
1067 04-08-2018 17:30:00 34.8 C 29 % 14.13 C
1068 04-08-2018 17:35:00 34.7 C 29 % 14.05 C
1069 04-08-2018 17:40:00 34.7 C 30 % 14.57 C
1070 04-08-2018 17:45:00 34.8 C 30 % 14.66 C
1071 04-08-2018 17:50:00 34.9 C 30 % 14.74 C
1072 04-08-2018 17:55:00 34.9 C 29 % 14.22 C
1073 04-08-2018 18:00:00 35 C 29 % 14.3 C
1074 04-08-2018 18:05:00 35 C 29 % 14.3 C
1075 04-08-2018 18:10:00 34.8 C 28 % 13.59 C
Sensor: Nr:Datum:Temp:Feuchte:Taupunkt:
Aussen-T/F 1076 04-08-2018 18:15:00 34.6 C 29 % 13.96 C
1077 04-08-2018 18:20:00 34.4 C 29 % 13.79 C
1078 04-08-2018 18:25:00 34.3 C 28 % 13.17 C
1079 04-08-2018 18:30:00 34.1 C 28 % 13 C
1080 04-08-2018 18:35:00 33.8 C 28 % 12.74 C
1081 04-08-2018 18:40:00 33.8 C 29 % 13.28 C
1082 04-08-2018 18:45:00 33.8 C 29 % 13.28 C
1083 04-08-2018 18:50:00 33.7 C 30 % 13.71 C
1084 04-08-2018 18:55:00 33.6 C 30 % 13.63 C
1085 04-08-2018 19:00:00 33.6 C 30 % 13.63 C
1086 04-08-2018 19:05:00 33.5 C 30 % 13.54 C
1087 04-08-2018 19:10:00 33.3 C 29 % 12.85 C
1088 04-08-2018 19:15:00 33.3 C 30 % 13.37 C
1089 04-08-2018 19:20:00 33.2 C 31 % 13.79 C
1090 04-08-2018 19:25:00 33.1 C 30 % 13.2 C
1091 04-08-2018 19:30:00 32.9 C 30 % 13.03 C
1092 04-08-2018 19:35:00 32.8 C 31 % 13.44 C
1093 04-08-2018 19:40:00 32.6 C 31 % 13.27 C
1094 04-08-2018 19:45:00 32.4 C 32 % 13.59 C
1095 04-08-2018 19:50:00 32.3 C 32 % 13.5 C
1096 04-08-2018 19:55:00 32.1 C 32 % 13.33 C
1097 04-08-2018 20:00:00 31.8 C 32 % 13.07 C
1098 04-08-2018 20:05:00 31.7 C 33 % 13.45 C
1099 04-08-2018 20:10:00 31.4 C 34 % 13.65 C
1100 04-08-2018 20:15:00 31.3 C 34 % 13.56 C
Sensor: Nr:Datum:Temp:Feuchte:Taupunkt:
Aussen-T/F 1101 04-08-2018 20:20:00 31.1 C 35 % 13.83 C
1102 04-08-2018 20:25:00 30.9 C 35 % 13.66 C
1103 04-08-2018 20:30:00 30.7 C 36 % 13.92 C
1104 04-08-2018 20:35:00 30.4 C 38 % 14.49 C
1105 04-08-2018 20:40:00 30.2 C 39 % 14.71 C
1106 04-08-2018 20:45:00 29.8 C 38 % 13.95 C
1107 04-08-2018 20:50:00 29.7 C 39 % 14.27 C
1108 04-08-2018 20:55:00 29.5 C 39 % 14.09 C
1109 04-08-2018 21:00:00 29.4 C 41 % 14.77 C
1110 04-08-2018 21:05:00 29.3 C 43 % 15.42 C
1111 04-08-2018 21:10:00 28.9 C 43 % 15.06 C
1112 04-08-2018 21:15:00 28.5 C 44 % 15.06 C
1113 04-08-2018 21:20:00 28.1 C 47 % 15.73 C
1114 04-08-2018 21:25:00 27.6 C 46 % 14.94 C
1115 04-08-2018 21:30:00 27.4 C 48 % 15.42 C
1116 04-08-2018 21:35:00 27.2 C 50 % 15.87 C
1117 04-08-2018 21:40:00 27.1 C 50 % 15.78 C
1118 04-08-2018 21:45:00 26.8 C 51 % 15.82 C
1119 04-08-2018 21:50:00 26.8 C 51 % 15.82 C
1120 04-08-2018 21:55:00 26.7 C 51 % 15.72 C
1121 04-08-2018 22:00:00 26.4 C 53 % 16.05 C
1122 04-08-2018 22:05:00 26.1 C 53 % 15.77 C
1123 04-08-2018 22:10:00 25.8 C 55 % 16.07 C
1124 04-08-2018 22:15:00 25.9 C 53 % 15.59 C
1125 04-08-2018 22:20:00 25.9 C 55 % 16.17 C
Sensor: Nr:Datum:Temp:Feuchte:Taupunkt:
Aussen-T/F 1126 04-08-2018 22:25:00 25.8 C 55 % 16.07 C
1127 04-08-2018 22:30:00 25.7 C 55 % 15.98 C
1128 04-08-2018 22:35:00 25.4 C 56 % 15.99 C
1129 04-08-2018 22:40:00 25.2 C 57 % 16.08 C
1130 04-08-2018 22:45:00 25.1 C 58 % 16.26 C
1131 04-08-2018 22:50:00 24.9 C 59 % 16.34 C
1132 04-08-2018 22:55:00 24.8 C 58 % 15.98 C
1133 04-08-2018 23:00:00 24.6 C 59 % 16.06 C
1134 04-08-2018 23:05:00 24.5 C 60 % 16.23 C
1135 04-08-2018 23:10:00 24.4 C 61 % 16.39 C
1136 04-08-2018 23:15:00 24.3 C 61 % 16.3 C
1137 04-08-2018 23:20:00 24.2 C 61 % 16.2 C
1138 04-08-2018 23:25:00 24.1 C 62 % 16.37 C
1139 04-08-2018 23:30:00 24.1 C 62 % 16.37 C
1140 04-08-2018 23:35:00 24 C 62 % 16.27 C
1141 04-08-2018 23:40:00 23.9 C 62 % 16.18 C
1142 04-08-2018 23:45:00 24.1 C 62 % 16.37 C
1143 04-08-2018 23:50:00 24.2 C 63 % 16.71 C
1144 04-08-2018 23:55:00 24.2 C 62 % 16.46 C
1145 05-08-2018 00:00:00 24.4 C 62 % 16.65 C
1146 05-08-2018 00:05:00 24.7 C 62 % 16.93 C
1147 05-08-2018 00:10:00 24.8 C 62 % 17.02 C
1148 05-08-2018 00:15:00 25 C 61 % 16.96 C
1149 05-08-2018 00:20:00 25.1 C 61 % 17.05 C
1150 05-08-2018 00:25:00 25.2 C 61 % 17.14 C
Sensor: Nr:Datum:Temp:Feuchte:Taupunkt:
Aussen-T/F 1151 05-08-2018 00:30:00 25.2 C 62 % 17.4 C
1152 05-08-2018 00:35:00 25.1 C 62 % 17.31 C
1153 05-08-2018 00:40:00 25.1 C 62 % 17.31 C
1154 05-08-2018 00:45:00 25.1 C 63 % 17.56 C
1155 05-08-2018 00:50:00 25.1 C 63 % 17.56 C
1156 05-08-2018 00:55:00 24.9 C 63 % 17.37 C
1157 05-08-2018 01:00:00 24.8 C 64 % 17.53 C
1158 05-08-2018 01:05:00 24.7 C 65 % 17.68 C
1159 05-08-2018 01:10:00 24.7 C 65 % 17.68 C
1160 05-08-2018 01:15:00 24.7 C 65 % 17.68 C
1161 05-08-2018 01:20:00 24.7 C 66 % 17.92 C
1162 05-08-2018 01:25:00 24.6 C 66 % 17.83 C
1163 05-08-2018 01:30:00 24.6 C 66 % 17.83 C
1164 05-08-2018 01:35:00 24.4 C 67 % 17.87 C
1165 05-08-2018 01:40:00 24.4 C 67 % 17.87 C
1166 05-08-2018 01:45:00 24.4 C 67 % 17.87 C
1167 05-08-2018 01:50:00 24.3 C 68 % 18.01 C
1168 05-08-2018 01:55:00 24.3 C 68 % 18.01 C
1169 05-08-2018 02:00:00 24.2 C 68 % 17.92 C
1170 05-08-2018 02:05:00 24 C 69 % 17.96 C
1171 05-08-2018 02:10:00 23.9 C 69 % 17.87 C
1172 05-08-2018 02:15:00 23.8 C 70 % 18 C
1173 05-08-2018 02:20:00 23.6 C 70 % 17.81 C
1174 05-08-2018 02:25:00 23.5 C 70 % 17.71 C
1175 05-08-2018 02:30:00 23.4 C 70 % 17.62 C
Sensor: Nr:Datum:Temp:Feuchte:Taupunkt:
Aussen-T/F 1176 05-08-2018 02:35:00 23.4 C 71 % 17.84 C
1177 05-08-2018 02:40:00 23.3 C 71 % 17.75 C
1178 05-08-2018 02:45:00 23.2 C 71 % 17.65 C
1179 05-08-2018 02:50:00 23.1 C 71 % 17.55 C
1180 05-08-2018 02:55:00 22.9 C 72 % 17.58 C
1181 05-08-2018 03:00:00 22.8 C 72 % 17.49 C
1182 05-08-2018 03:05:00 22.7 C 73 % 17.61 C
1183 05-08-2018 03:10:00 22.6 C 74 % 17.73 C
1184 05-08-2018 03:15:00 22.4 C 74 % 17.54 C
1185 05-08-2018 03:20:00 22.3 C 74 % 17.44 C
1186 05-08-2018 03:25:00 22.2 C 75 % 17.56 C
1187 05-08-2018 03:30:00 22.1 C 75 % 17.46 C
1188 05-08-2018 03:35:00 21.9 C 76 % 17.48 C
1189 05-08-2018 03:40:00 21.8 C 77 % 17.59 C
1190 05-08-2018 03:45:00 21.8 C 77 % 17.59 C
1191 05-08-2018 03:50:00 21.7 C 77 % 17.49 C
1192 05-08-2018 03:55:00 21.7 C 77 % 17.49 C
1193 05-08-2018 04:00:00 21.6 C 78 % 17.6 C
1194 05-08-2018 04:05:00 21.5 C 78 % 17.5 C
1195 05-08-2018 04:10:00 21.4 C 78 % 17.4 C
1196 05-08-2018 04:15:00 21.3 C 79 % 17.51 C
1197 05-08-2018 04:20:00 21.2 C 79 % 17.41 C
1198 05-08-2018 04:25:00 21.1 C 79 % 17.32 C
1199 05-08-2018 04:30:00 21.1 C 80 % 17.51 C
1200 05-08-2018 04:35:00 21.1 C 80 % 17.51 C
Sensor: Nr:Datum:Temp:Feuchte:Taupunkt:
Aussen-T/F 1201 05-08-2018 04:40:00 21.1 C 80 % 17.51 C
1202 05-08-2018 04:45:00 21 C 80 % 17.42 C
1203 05-08-2018 04:50:00 20.9 C 80 % 17.32 C
1204 05-08-2018 04:55:00 20.9 C 80 % 17.32 C
1205 05-08-2018 05:00:00 20.8 C 80 % 17.22 C
1206 05-08-2018 05:05:00 20.8 C 81 % 17.42 C
1207 05-08-2018 05:10:00 20.7 C 81 % 17.32 C
1208 05-08-2018 05:15:00 20.6 C 81 % 17.22 C
1209 05-08-2018 05:20:00 20.5 C 81 % 17.13 C
1210 05-08-2018 05:25:00 20.4 C 82 % 17.22 C
1211 05-08-2018 05:30:00 20.3 C 82 % 17.13 C
1212 05-08-2018 05:35:00 20.2 C 82 % 17.03 C
1213 05-08-2018 05:40:00 20.2 C 83 % 17.22 C
1214 05-08-2018 05:45:00 20.2 C 83 % 17.22 C
1215 05-08-2018 05:50:00 20.2 C 83 % 17.22 C
1216 05-08-2018 05:55:00 20.1 C 83 % 17.12 C
1217 05-08-2018 06:00:00 20.1 C 83 % 17.12 C
1218 05-08-2018 06:05:00 20.1 C 84 % 17.31 C
1219 05-08-2018 06:10:00 20.1 C 83 % 17.12 C
1220 05-08-2018 06:15:00 20.1 C 83 % 17.12 C
1221 05-08-2018 06:20:00 20 C 84 % 17.21 C
1222 05-08-2018 06:25:00 20 C 84 % 17.21 C
1223 05-08-2018 06:30:00 19.9 C 84 % 17.12 C
1224 05-08-2018 06:35:00 19.9 C 84 % 17.12 C
1225 05-08-2018 06:40:00 20 C 84 % 17.21 C
Sensor: Nr:Datum:Temp:Feuchte:Taupunkt:
Aussen-T/F 1226 05-08-2018 06:45:00 20 C 84 % 17.21 C
1227 05-08-2018 06:50:00 20.1 C 84 % 17.31 C
1228 05-08-2018 06:55:00 20.1 C 84 % 17.31 C
1229 05-08-2018 07:00:00 20.1 C 84 % 17.31 C
1230 05-08-2018 07:05:00 20.1 C 84 % 17.31 C
1231 05-08-2018 07:10:00 20.2 C 84 % 17.41 C
1232 05-08-2018 07:15:00 20.2 C 84 % 17.41 C
1233 05-08-2018 07:20:00 20.2 C 84 % 17.41 C
1234 05-08-2018 07:25:00 20.3 C 84 % 17.51 C
1235 05-08-2018 07:30:00 20.3 C 84 % 17.51 C
1236 05-08-2018 07:35:00 20.3 C 83 % 17.32 C
1237 05-08-2018 07:40:00 20.4 C 83 % 17.42 C
1238 05-08-2018 07:45:00 20.5 C 84 % 17.7 C
1239 05-08-2018 07:50:00 20.6 C 83 % 17.61 C
1240 05-08-2018 07:55:00 20.7 C 83 % 17.71 C
1241 05-08-2018 08:00:00 20.7 C 82 % 17.52 C
1242 05-08-2018 08:05:00 20.9 C 81 % 17.52 C
1243 05-08-2018 08:10:00 21 C 81 % 17.61 C
1244 05-08-2018 08:15:00 21.2 C 80 % 17.61 C
1245 05-08-2018 08:20:00 21.2 C 80 % 17.61 C
1246 05-08-2018 08:25:00 21.3 C 79 % 17.51 C
1247 05-08-2018 08:30:00 21.4 C 79 % 17.61 C
1248 05-08-2018 08:35:00 21.5 C 78 % 17.5 C
1249 05-08-2018 08:40:00 21.6 C 78 % 17.6 C
1250 05-08-2018 08:45:00 21.7 C 78 % 17.7 C
Sensor: Nr:Datum:Temp:Feuchte:Taupunkt:
Aussen-T/F 1251 05-08-2018 08:50:00 21.8 C 77 % 17.59 C
1252 05-08-2018 08:55:00 21.8 C 76 % 17.38 C
1253 05-08-2018 09:00:00 21.9 C 76 % 17.48 C
1254 05-08-2018 09:05:00 22 C 76 % 17.57 C
1255 05-08-2018 09:10:00 22.1 C 75 % 17.46 C
1256 05-08-2018 09:15:00 22.1 C 74 % 17.25 C
1257 05-08-2018 09:20:00 22.2 C 74 % 17.34 C
1258 05-08-2018 09:25:00 22.2 C 73 % 17.13 C
1259 05-08-2018 09:30:00 22.3 C 73 % 17.23 C
1260 05-08-2018 09:35:00 22.4 C 72 % 17.1 C
1261 05-08-2018 09:40:00 22.4 C 71 % 16.88 C
1262 05-08-2018 09:45:00 22.4 C 71 % 16.88 C
1263 05-08-2018 09:50:00 22.6 C 70 % 16.85 C
1264 05-08-2018 09:55:00 22.7 C 70 % 16.95 C
1265 05-08-2018 10:00:00 22.7 C 69 % 16.72 C
1266 05-08-2018 10:05:00 22.7 C 68 % 16.49 C
1267 05-08-2018 10:10:00 22.7 C 68 % 16.49 C
1268 05-08-2018 10:15:00 22.8 C 68 % 16.59 C
1269 05-08-2018 10:20:00 22.9 C 67 % 16.45 C
1270 05-08-2018 10:25:00 23.2 C 67 % 16.73 C
1271 05-08-2018 10:30:00 23.4 C 65 % 16.45 C
1272 05-08-2018 10:35:00 23.6 C 64 % 16.39 C
1273 05-08-2018 10:40:00 23.7 C 64 % 16.49 C
1274 05-08-2018 10:45:00 23.7 C 63 % 16.24 C
1275 05-08-2018 10:50:00 23.7 C 62 % 15.99 C
Sensor: Nr:Datum:Temp:Feuchte:Taupunkt:
Aussen-T/F 1276 05-08-2018 10:55:00 23.7 C 62 % 15.99 C
1277 05-08-2018 11:00:00 23.8 C 62 % 16.08 C
1278 05-08-2018 11:05:00 23.9 C 61 % 15.92 C
1279 05-08-2018 11:10:00 24 C 60 % 15.76 C
1280 05-08-2018 11:15:00 24.1 C 61 % 16.11 C
1281 05-08-2018 11:20:00 24.2 C 59 % 15.68 C
1282 05-08-2018 11:25:00 24.3 C 57 % 15.24 C
1283 05-08-2018 11:30:00 24.4 C 57 % 15.33 C
1284 05-08-2018 11:35:00 24.4 C 58 % 15.6 C
1285 05-08-2018 11:40:00 24.5 C 58 % 15.7 C
1286 05-08-2018 11:45:00 24.6 C 58 % 15.79 C
1287 05-08-2018 11:50:00 24.7 C 57 % 15.61 C
1288 05-08-2018 11:55:00 24.8 C 55 % 15.15 C
1289 05-08-2018 12:00:00 24.8 C 55 % 15.15 C
1290 05-08-2018 12:05:00 24.8 C 55 % 15.15 C
1291 05-08-2018 12:10:00 24.9 C 55 % 15.24 C
1292 05-08-2018 12:15:00 25.2 C 55 % 15.52 C
1293 05-08-2018 12:20:00 25.3 C 54 % 15.33 C
1294 05-08-2018 12:25:00 25.3 C 54 % 15.33 C
1295 05-08-2018 12:30:00 25.3 C 53 % 15.03 C
1296 05-08-2018 12:35:00 25.5 C 54 % 15.51 C
1297 05-08-2018 12:40:00 25.7 C 51 % 14.81 C
1298 05-08-2018 12:45:00 25.7 C 49 % 14.19 C
1299 05-08-2018 12:50:00 25.6 C 51 % 14.71 C
1300 05-08-2018 12:55:00 25.7 C 51 % 14.81 C
Sensor: Nr:Datum:Temp:Feuchte:Taupunkt:
Aussen-T/F 1301 05-08-2018 13:00:00 25.7 C 51 % 14.81 C
1302 05-08-2018 13:05:00 25.8 C 49 % 14.28 C
1303 05-08-2018 13:10:00 25.8 C 50 % 14.59 C
1304 05-08-2018 13:15:00 25.9 C 51 % 14.99 C
1305 05-08-2018 13:20:00 26.1 C 49 % 14.55 C
1306 05-08-2018 13:25:00 26 C 50 % 14.77 C
1307 05-08-2018 13:30:00 26.1 C 50 % 14.87 C
1308 05-08-2018 13:35:00 26.1 C 50 % 14.87 C
1309 05-08-2018 13:40:00 26.1 C 49 % 14.55 C
1310 05-08-2018 13:45:00 26.2 C 49 % 14.64 C
1311 05-08-2018 13:50:00 26.3 C 50 % 15.05 C
1312 05-08-2018 13:55:00 26.4 C 49 % 14.83 C
1313 05-08-2018 14:00:00 26.6 C 48 % 14.69 C
1314 05-08-2018 14:05:00 26.7 C 48 % 14.78 C
1315 05-08-2018 14:10:00 26.9 C 48 % 14.96 C
1316 05-08-2018 14:15:00 26.9 C 47 % 14.64 C
1317 05-08-2018 14:20:00 26.9 C 47 % 14.64 C
1318 05-08-2018 14:25:00 26.9 C 45 % 13.96 C
1319 05-08-2018 14:30:00 26.9 C 45 % 13.96 C
1320 05-08-2018 14:35:00 27 C 45 % 14.06 C
1321 05-08-2018 14:40:00 27.1 C 44 % 13.8 C
1322 05-08-2018 14:45:00 27.3 C 46 % 14.67 C
1323 05-08-2018 14:50:00 27.5 C 45 % 14.51 C
1324 05-08-2018 14:55:00 27.7 C 44 % 14.34 C
1325 05-08-2018 15:00:00 27.7 C 43 % 13.99 C
Sensor: Nr:Datum:Temp:Feuchte:Taupunkt:
Aussen-T/F 1326 05-08-2018 15:05:00 27.7 C 43 % 13.99 C
1327 05-08-2018 15:10:00 27.9 C 44 % 14.52 C
1328 05-08-2018 15:15:00 28.1 C 42 % 13.98 C
1329 05-08-2018 15:20:00 28.1 C 42 % 13.98 C
1330 05-08-2018 15:25:00 28.5 C 42 % 14.34 C
1331 05-08-2018 15:30:00 28.8 C 41 % 14.24 C
1332 05-08-2018 15:35:00 29.1 C 42 % 14.88 C
1333 05-08-2018 15:40:00 29.4 C 40 % 14.39 C
1334 05-08-2018 15:45:00 29.6 C 39 % 14.18 C
1335 05-08-2018 15:50:00 29.7 C 39 % 14.27 C
1336 05-08-2018 15:55:00 30.1 C 38 % 14.22 C
1337 05-08-2018 16:00:00 30.3 C 37 % 13.99 C
1338 05-08-2018 16:05:00 30.3 C 39 % 14.8 C
1339 05-08-2018 16:10:00 30.3 C 38 % 14.4 C
1340 05-08-2018 16:15:00 30.2 C 38 % 14.31 C
1341 05-08-2018 16:20:00 30.2 C 39 % 14.71 C
1342 05-08-2018 16:25:00 30.4 C 39 % 14.89 C
1343 05-08-2018 16:30:00 30.6 C 37 % 14.25 C
1344 05-08-2018 16:35:00 30.6 C 39 % 15.07 C
1345 05-08-2018 16:40:00 30.8 C 36 % 14 C
1346 05-08-2018 16:45:00 30.9 C 37 % 14.51 C
1347 05-08-2018 16:50:00 30.8 C 37 % 14.43 C
1348 05-08-2018 16:55:00 30.8 C 37 % 14.43 C
1349 05-08-2018 17:00:00 30.8 C 37 % 14.43 C
1350 05-08-2018 17:05:00 31 C 37 % 14.6 C
Sensor: Nr:Datum:Temp:Feuchte:Taupunkt:
Aussen-T/F 1351 05-08-2018 17:10:00 31.2 C 36 % 14.35 C
1352 05-08-2018 17:15:00 31.1 C 36 % 14.27 C
1353 05-08-2018 17:20:00 31.1 C 37 % 14.69 C
1354 05-08-2018 17:25:00 30.9 C 36 % 14.09 C
1355 05-08-2018 17:30:00 30.6 C 37 % 14.25 C
1356 05-08-2018 17:35:00 30.6 C 38 % 14.66 C
1357 05-08-2018 17:40:00 30.8 C 37 % 14.43 C
1358 05-08-2018 17:45:00 31 C 36 % 14.18 C
1359 05-08-2018 17:50:00 31.2 C 36 % 14.35 C
1360 05-08-2018 17:55:00 31.4 C 35 % 14.1 C
1361 05-08-2018 18:00:00 31.7 C 35 % 14.36 C
1362 05-08-2018 18:05:00 31.7 C 35 % 14.36 C
1363 05-08-2018 18:10:00 31.4 C 35 % 14.1 C
1364 05-08-2018 18:15:00 31.3 C 35 % 14.01 C
1365 05-08-2018 18:20:00 31.1 C 35 % 13.83 C
1366 05-08-2018 18:25:00 30.8 C 36 % 14 C
1367 05-08-2018 18:30:00 30.8 C 36 % 14 C
1368 05-08-2018 18:35:00 30.9 C 36 % 14.09 C
1369 05-08-2018 18:40:00 30.9 C 36 % 14.09 C
1370 05-08-2018 18:45:00 31.1 C 35 % 13.83 C
1371 05-08-2018 18:50:00 31.1 C 36 % 14.27 C
1372 05-08-2018 18:55:00 31.1 C 35 % 13.83 C
1373 05-08-2018 19:00:00 30.9 C 36 % 14.09 C
1374 05-08-2018 19:05:00 30.9 C 36 % 14.09 C
1375 05-08-2018 19:10:00 30.8 C 36 % 14 C
Sensor: Nr:Datum:Temp:Feuchte:Taupunkt:
Aussen-T/F 1376 05-08-2018 19:15:00 30.5 C 36 % 13.74 C
1377 05-08-2018 19:20:00 30.3 C 36 % 13.56 C
1378 05-08-2018 19:25:00 29.9 C 37 % 13.63 C
1379 05-08-2018 19:30:00 29.7 C 38 % 13.87 C
1380 05-08-2018 19:35:00 29.6 C 38 % 13.78 C
1381 05-08-2018 19:40:00 29.2 C 39 % 13.82 C
1382 05-08-2018 19:45:00 28.8 C 41 % 14.24 C
1383 05-08-2018 19:50:00 28.7 C 40 % 13.77 C
1384 05-08-2018 19:55:00 28.5 C 42 % 14.34 C
1385 05-08-2018 20:00:00 28.4 C 41 % 13.88 C
1386 05-08-2018 20:05:00 28.3 C 41 % 13.79 C
1387 05-08-2018 20:10:00 28.2 C 42 % 14.07 C
1388 05-08-2018 20:15:00 28.1 C 41 % 13.61 C
1389 05-08-2018 20:20:00 27.9 C 42 % 13.8 C
1390 05-08-2018 20:25:00 27.8 C 41 % 13.34 C
1391 05-08-2018 20:30:00 27.7 C 42 % 13.62 C
1392 05-08-2018 20:35:00 27.6 C 42 % 13.53 C
1393 05-08-2018 20:40:00 27.3 C 42 % 13.27 C
1394 05-08-2018 20:45:00 27.2 C 43 % 13.54 C
1395 05-08-2018 20:50:00 27 C 43 % 13.36 C
1396 05-08-2018 20:55:00 26.8 C 44 % 13.53 C
1397 05-08-2018 21:00:00 26.7 C 46 % 14.12 C
1398 05-08-2018 21:05:00 26.3 C 47 % 14.09 C
1399 05-08-2018 21:10:00 25.8 C 48 % 13.96 C
1400 05-08-2018 21:15:00 25.4 C 49 % 13.91 C
Sensor: Nr:Datum:Temp:Feuchte:Taupunkt:
Aussen-T/F 1401 05-08-2018 21:20:00 24.9 C 49 % 13.46 C
1402 05-08-2018 21:25:00 24.6 C 51 % 13.79 C
1403 05-08-2018 21:30:00 24.2 C 52 % 13.73 C
1404 05-08-2018 21:35:00 23.8 C 54 % 13.94 C
1405 05-08-2018 21:40:00 23.4 C 55 % 13.85 C
1406 05-08-2018 21:45:00 23.2 C 55 % 13.66 C
1407 05-08-2018 21:50:00 23 C 57 % 14.03 C
1408 05-08-2018 21:55:00 22.8 C 57 % 13.84 C
1409 05-08-2018 22:00:00 22.7 C 57 % 13.75 C
1410 05-08-2018 22:05:00 22.6 C 57 % 13.65 C
1411 05-08-2018 22:10:00 22.7 C 56 % 13.47 C
1412 05-08-2018 22:15:00 22.8 C 57 % 13.84 C
1413 05-08-2018 22:20:00 22.8 C 56 % 13.57 C
1414 05-08-2018 22:25:00 22.7 C 57 % 13.75 C
1415 05-08-2018 22:30:00 22.4 C 58 % 13.73 C
1416 05-08-2018 22:35:00 22.2 C 58 % 13.55 C
1417 05-08-2018 22:40:00 21.9 C 59 % 13.53 C
1418 05-08-2018 22:45:00 21.7 C 60 % 13.6 C
1419 05-08-2018 22:50:00 21.4 C 61 % 13.57 C
1420 05-08-2018 22:55:00 21.3 C 62 % 13.73 C
1421 05-08-2018 23:00:00 21.1 C 62 % 13.54 C
1422 05-08-2018 23:05:00 21 C 63 % 13.69 C
1423 05-08-2018 23:10:00 20.8 C 63 % 13.5 C
1424 05-08-2018 23:15:00 20.8 C 63 % 13.5 C
1425 05-08-2018 23:20:00 20.7 C 63 % 13.41 C
Sensor: Nr:Datum:Temp:Feuchte:Taupunkt:
Aussen-T/F 1426 05-08-2018 23:25:00 20.6 C 64 % 13.55 C
1427 05-08-2018 23:30:00 20.4 C 64 % 13.37 C
1428 05-08-2018 23:35:00 20.4 C 64 % 13.37 C
1429 05-08-2018 23:40:00 20.3 C 65 % 13.51 C
1430 05-08-2018 23:45:00 20.2 C 64 % 13.18 C
1431 05-08-2018 23:50:00 20.1 C 65 % 13.32 C
1432 05-08-2018 23:55:00 20 C 66 % 13.46 C
1433 06-08-2018 00:00:00 19.9 C 65 % 13.13 C
1434 06-08-2018 00:05:00 19.8 C 66 % 13.27 C
1435 06-08-2018 00:10:00 19.7 C 66 % 13.17 C
1436 06-08-2018 00:15:00 19.6 C 66 % 13.08 C
1437 06-08-2018 00:20:00 19.4 C 67 % 13.12 C
1438 06-08-2018 00:25:00 19.3 C 67 % 13.02 C
1439 06-08-2018 00:30:00 19.2 C 67 % 12.93 C
1440 06-08-2018 00:35:00 19.1 C 67 % 12.83 C
1441 06-08-2018 00:40:00 19 C 68 % 12.96 C
1442 06-08-2018 00:45:00 18.9 C 68 % 12.87 C
1443 06-08-2018 00:50:00 18.8 C 69 % 13 C
1444 06-08-2018 00:55:00 18.6 C 69 % 12.8 C
1445 06-08-2018 01:00:00 18.5 C 70 % 12.93 C
1446 06-08-2018 01:05:00 18.4 C 70 % 12.83 C
1447 06-08-2018 01:10:00 18.3 C 71 % 12.95 C
1448 06-08-2018 01:15:00 18.1 C 71 % 12.76 C
1449 06-08-2018 01:20:00 18 C 71 % 12.67 C
1450 06-08-2018 01:25:00 17.9 C 72 % 12.78 C
Sensor: Nr:Datum:Temp:Feuchte:Taupunkt:
Aussen-T/F 1451 06-08-2018 01:30:00 17.8 C 71 % 12.47 C
1452 06-08-2018 01:35:00 17.8 C 72 % 12.69 C
1453 06-08-2018 01:40:00 17.7 C 72 % 12.59 C
1454 06-08-2018 01:45:00 17.7 C 72 % 12.59 C
1455 06-08-2018 01:50:00 17.7 C 72 % 12.59 C
1456 06-08-2018 01:55:00 17.7 C 72 % 12.59 C
1457 06-08-2018 02:00:00 17.7 C 71 % 12.38 C
1458 06-08-2018 02:05:00 17.6 C 72 % 12.5 C
1459 06-08-2018 02:10:00 17.5 C 72 % 12.4 C
1460 06-08-2018 02:15:00 17.3 C 73 % 12.42 C
1461 06-08-2018 02:20:00 17.3 C 73 % 12.42 C
1462 06-08-2018 02:25:00 17.2 C 74 % 12.53 C
1463 06-08-2018 02:30:00 17.2 C 74 % 12.53 C
1464 06-08-2018 02:35:00 17.2 C 74 % 12.53 C
1465 06-08-2018 02:40:00 17.1 C 74 % 12.43 C
1466 06-08-2018 02:45:00 17 C 75 % 12.54 C
1467 06-08-2018 02:50:00 16.9 C 75 % 12.44 C
1468 06-08-2018 02:55:00 16.8 C 75 % 12.35 C
1469 06-08-2018 03:00:00 16.8 C 75 % 12.35 C
1470 06-08-2018 03:05:00 16.8 C 75 % 12.35 C
1471 06-08-2018 03:10:00 16.8 C 76 % 12.55 C
1472 06-08-2018 03:15:00 16.7 C 76 % 12.45 C
1473 06-08-2018 03:20:00 16.7 C 76 % 12.45 C
1474 06-08-2018 03:25:00 16.6 C 76 % 12.36 C
1475 06-08-2018 03:30:00 16.5 C 76 % 12.26 C
Sensor: Nr:Datum:Temp:Feuchte:Taupunkt:
Aussen-T/F 1476 06-08-2018 03:35:00 16.5 C 76 % 12.26 C
1477 06-08-2018 03:40:00 16.4 C 77 % 12.36 C
1478 06-08-2018 03:45:00 16.4 C 77 % 12.36 C
1479 06-08-2018 03:50:00 16.4 C 77 % 12.36 C
1480 06-08-2018 03:55:00 16.3 C 77 % 12.26 C
1481 06-08-2018 04:00:00 16.3 C 77 % 12.26 C
1482 06-08-2018 04:05:00 16.3 C 78 % 12.46 C
1483 06-08-2018 04:10:00 16.3 C 78 % 12.46 C
1484 06-08-2018 04:15:00 16.2 C 78 % 12.36 C
1485 06-08-2018 04:20:00 16.2 C 78 % 12.36 C
1486 06-08-2018 04:25:00 16.2 C 78 % 12.36 C
1487 06-08-2018 04:30:00 16.1 C 78 % 12.27 C
1488 06-08-2018 04:35:00 16.1 C 78 % 12.27 C
1489 06-08-2018 04:40:00 16 C 78 % 12.17 C
1490 06-08-2018 04:45:00 15.9 C 78 % 12.07 C
1491 06-08-2018 04:50:00 15.8 C 78 % 11.97 C
1492 06-08-2018 04:55:00 15.8 C 79 % 12.17 C
1493 06-08-2018 05:00:00 15.7 C 79 % 12.07 C
1494 06-08-2018 05:05:00 15.6 C 79 % 11.97 C
1495 06-08-2018 05:10:00 15.6 C 80 % 12.16 C
1496 06-08-2018 05:15:00 15.5 C 80 % 12.07 C
1497 06-08-2018 05:20:00 15.4 C 80 % 11.97 C
1498 06-08-2018 05:25:00 15.3 C 81 % 12.06 C
1499 06-08-2018 05:30:00 15.3 C 81 % 12.06 C
1500 06-08-2018 05:35:00 15.2 C 81 % 11.96 C
Sensor: Nr:Datum:Temp:Feuchte:Taupunkt:
Aussen-T/F 1501 06-08-2018 05:40:00 15.2 C 82 % 12.15 C
1502 06-08-2018 05:45:00 15.2 C 82 % 12.15 C
1503 06-08-2018 05:50:00 15.2 C 82 % 12.15 C
1504 06-08-2018 05:55:00 15.1 C 82 % 12.05 C
1505 06-08-2018 06:00:00 15 C 82 % 11.95 C
1506 06-08-2018 06:05:00 14.9 C 82 % 11.86 C
1507 06-08-2018 06:10:00 14.9 C 82 % 11.86 C
1508 06-08-2018 06:15:00 14.8 C 83 % 11.94 C
1509 06-08-2018 06:20:00 14.8 C 83 % 11.94 C
1510 06-08-2018 06:25:00 14.8 C 83 % 11.94 C
1511 06-08-2018 06:30:00 14.8 C 83 % 11.94 C
1512 06-08-2018 06:35:00 14.8 C 84 % 12.12 C
1513 06-08-2018 06:40:00 14.8 C 83 % 11.94 C
1514 06-08-2018 06:45:00 14.7 C 83 % 11.85 C
1515 06-08-2018 06:50:00 14.7 C 84 % 12.03 C
1516 06-08-2018 06:55:00 14.7 C 84 % 12.03 C
1517 06-08-2018 07:00:00 14.7 C 84 % 12.03 C
1518 06-08-2018 07:05:00 14.7 C 84 % 12.03 C
1519 06-08-2018 07:10:00 14.7 C 84 % 12.03 C
1520 06-08-2018 07:15:00 14.7 C 84 % 12.03 C
1521 06-08-2018 07:20:00 14.7 C 84 % 12.03 C
1522 06-08-2018 07:25:00 14.7 C 84 % 12.03 C
1523 06-08-2018 07:30:00 14.7 C 84 % 12.03 C
1524 06-08-2018 07:35:00 14.8 C 84 % 12.12 C
1525 06-08-2018 07:40:00 14.8 C 84 % 12.12 C
Sensor: Nr:Datum:Temp:Feuchte:Taupunkt:
Aussen-T/F 1526 06-08-2018 07:45:00 14.8 C 84 % 12.12 C
1527 06-08-2018 07:50:00 14.9 C 84 % 12.22 C
1528 06-08-2018 07:55:00 14.9 C 84 % 12.22 C
1529 06-08-2018 08:00:00 15 C 84 % 12.32 C
1530 06-08-2018 08:05:00 15.1 C 84 % 12.42 C
1531 06-08-2018 08:10:00 15.2 C 84 % 12.52 C
1532 06-08-2018 08:15:00 15.3 C 84 % 12.61 C
1533 06-08-2018 08:20:00 15.4 C 84 % 12.71 C
1534 06-08-2018 08:25:00 15.5 C 83 % 12.63 C
1535 06-08-2018 08:30:00 15.6 C 83 % 12.72 C
1536 06-08-2018 08:35:00 15.7 C 83 % 12.82 C
1537 06-08-2018 08:40:00 15.7 C 83 % 12.82 C
1538 06-08-2018 08:45:00 15.8 C 82 % 12.74 C
1539 06-08-2018 08:50:00 16 C 82 % 12.93 C
1540 06-08-2018 08:55:00 16.2 C 83 % 13.31 C
1541 06-08-2018 09:00:00 16.3 C 82 % 13.22 C
1542 06-08-2018 09:05:00 16.5 C 82 % 13.42 C
1543 06-08-2018 09:10:00 16.7 C 81 % 13.43 C
1544 06-08-2018 09:15:00 16.9 C 81 % 13.62 C
1545 06-08-2018 09:20:00 17.1 C 81 % 13.82 C
1546 06-08-2018 09:25:00 17.3 C 80 % 13.82 C
1547 06-08-2018 09:30:00 17.6 C 80 % 14.11 C
1548 06-08-2018 09:35:00 17.8 C 79 % 14.11 C
1549 06-08-2018 09:40:00 17.9 C 78 % 14.01 C
1550 06-08-2018 09:45:00 18.2 C 78 % 14.3 C
Sensor: Nr:Datum:Temp:Feuchte:Taupunkt:
Aussen-T/F 1551 06-08-2018 09:50:00 18.4 C 77 % 14.3 C
1552 06-08-2018 09:55:00 18.8 C 76 % 14.48 C
1553 06-08-2018 10:00:00 19.1 C 74 % 14.36 C
1554 06-08-2018 10:05:00 19.6 C 72 % 14.42 C
1555 06-08-2018 10:10:00 20.1 C 71 % 14.68 C
1556 06-08-2018 10:15:00 20.6 C 70 % 14.94 C
1557 06-08-2018 10:20:00 20.9 C 69 % 15 C
1558 06-08-2018 10:25:00 21.3 C 67 % 14.93 C
1559 06-08-2018 10:30:00 21.7 C 65 % 14.84 C
1560 06-08-2018 10:35:00 22.2 C 66 % 15.55 C
1561 06-08-2018 10:40:00 22.5 C 64 % 15.35 C
1562 06-08-2018 10:45:00 22.8 C 61 % 14.89 C
1563 06-08-2018 10:50:00 23.1 C 62 % 15.42 C
1564 06-08-2018 10:55:00 23.4 C 60 % 15.19 C
1565 06-08-2018 11:00:00 23.9 C 58 % 15.14 C
1566 06-08-2018 11:05:00 24.3 C 57 % 15.24 C
1567 06-08-2018 11:10:00 24.8 C 56 % 15.43 C
1568 06-08-2018 11:15:00 25.2 C 54 % 15.23 C
1569 06-08-2018 11:20:00 25.4 C 56 % 15.99 C
1570 06-08-2018 11:25:00 25.7 C 53 % 15.4 C
1571 06-08-2018 11:30:00 25.9 C 52 % 15.29 C
1572 06-08-2018 11:35:00 26.3 C 51 % 15.36 C
1573 06-08-2018 11:40:00 26.6 C 50 % 15.32 C
1574 06-08-2018 11:45:00 26.8 C 50 % 15.51 C
1575 06-08-2018 11:50:00 27.1 C 49 % 15.47 C
Sensor: Nr:Datum:Temp:Feuchte:Taupunkt:
Aussen-T/F 1576 06-08-2018 11:55:00 27.3 C 48 % 15.33 C
1577 06-08-2018 12:00:00 27.4 C 47 % 15.09 C
1578 06-08-2018 12:05:00 27.6 C 46 % 14.94 C
1579 06-08-2018 12:10:00 27.7 C 46 % 15.03 C
1580 06-08-2018 12:15:00 27.8 C 47 % 15.45 C
1581 06-08-2018 12:20:00 27.9 C 46 % 15.21 C
1582 06-08-2018 12:25:00 28.1 C 46 % 15.39 C
1583 06-08-2018 12:30:00 28.2 C 44 % 14.79 C
1584 06-08-2018 12:35:00 28.2 C 44 % 14.79 C
1585 06-08-2018 12:40:00 28.3 C 45 % 15.23 C
1586 06-08-2018 12:45:00 28.3 C 43 % 14.53 C
1587 06-08-2018 12:50:00 28.4 C 43 % 14.62 C
1588 06-08-2018 12:55:00 28.8 C 42 % 14.61 C
1589 06-08-2018 13:00:00 28.9 C 42 % 14.7 C
1590 06-08-2018 13:05:00 29 C 40 % 14.03 C
1591 06-08-2018 13:10:00 29 C 39 % 13.65 C
1592 06-08-2018 13:15:00 29.1 C 40 % 14.12 C
1593 06-08-2018 13:20:00 29.2 C 40 % 14.21 C
1594 06-08-2018 13:25:00 29.3 C 39 % 13.91 C
1595 06-08-2018 13:30:00 29.5 C 38 % 13.69 C
1596 06-08-2018 13:35:00 29.6 C 38 % 13.78 C
1597 06-08-2018 13:40:00 29.8 C 38 % 13.95 C
1598 06-08-2018 13:45:00 30 C 38 % 14.13 C
1599 06-08-2018 13:50:00 30.1 C 38 % 14.22 C
1600 06-08-2018 13:55:00 30.3 C 37 % 13.99 C
Sensor: Nr:Datum:Temp:Feuchte:Taupunkt:
Aussen-T/F 1601 06-08-2018 14:00:00 30.6 C 37 % 14.25 C
1602 06-08-2018 14:05:00 30.7 C 36 % 13.92 C
1603 06-08-2018 14:10:00 30.6 C 36 % 13.83 C
1604 06-08-2018 14:15:00 30.6 C 37 % 14.25 C
1605 06-08-2018 14:20:00 30.7 C 36 % 13.92 C
1606 06-08-2018 14:25:00 30.8 C 37 % 14.43 C
1607 06-08-2018 14:30:00 30.9 C 36 % 14.09 C
1608 06-08-2018 14:35:00 31 C 37 % 14.6 C
1609 06-08-2018 14:40:00 31 C 36 % 14.18 C
1610 06-08-2018 14:45:00 31.1 C 37 % 14.69 C
1611 06-08-2018 14:50:00 31.2 C 38 % 15.19 C
1612 06-08-2018 14:55:00 31.3 C 36 % 14.44 C
1613 06-08-2018 15:00:00 31.4 C 37 % 14.96 C
1614 06-08-2018 15:05:00 31.6 C 37 % 15.13 C
1615 06-08-2018 15:10:00 31.8 C 37 % 15.31 C
1616 06-08-2018 15:15:00 32.1 C 36 % 15.15 C
1617 06-08-2018 15:20:00 32.5 C 36 % 15.5 C
1618 06-08-2018 15:25:00 32.8 C 35 % 15.32 C
1619 06-08-2018 15:30:00 33 C 35 % 15.5 C
1620 06-08-2018 15:35:00 33.2 C 35 % 15.67 C
1621 06-08-2018 15:40:00 33.4 C 34 % 15.39 C
1622 06-08-2018 15:45:00 33.6 C 34 % 15.57 C
1623 06-08-2018 15:50:00 33.9 C 33 % 15.36 C
1624 06-08-2018 15:55:00 34.3 C 33 % 15.71 C
1625 06-08-2018 16:00:00 34.6 C 32 % 15.49 C
Sensor: Nr:Datum:Temp:Feuchte:Taupunkt:
Aussen-T/F 1626 06-08-2018 16:05:00 34.3 C 34 % 16.18 C
1627 06-08-2018 16:10:00 33.9 C 33 % 15.36 C
1628 06-08-2018 16:15:00 33.6 C 34 % 15.57 C
1629 06-08-2018 16:20:00 33.3 C 34 % 15.31 C
1630 06-08-2018 16:25:00 33.4 C 34 % 15.39 C
1631 06-08-2018 16:30:00 34.1 C 34 % 16 C
1632 06-08-2018 16:35:00 34.4 C 33 % 15.8 C
1633 06-08-2018 16:40:00 34.6 C 32 % 15.49 C
1634 06-08-2018 16:45:00 34.7 C 32 % 15.58 C
1635 06-08-2018 16:50:00 34.7 C 32 % 15.58 C
1636 06-08-2018 16:55:00 34.4 C 33 % 15.8 C
1637 06-08-2018 17:00:00 34 C 33 % 15.45 C
1638 06-08-2018 17:05:00 33.8 C 36 % 16.64 C
1639 06-08-2018 17:10:00 33.8 C 34 % 15.74 C
1640 06-08-2018 17:15:00 34.2 C 34 % 16.09 C
1641 06-08-2018 17:20:00 34.8 C 32 % 15.66 C
1642 06-08-2018 17:25:00 34.5 C 32 % 15.4 C
1643 06-08-2018 17:30:00 34.2 C 33 % 15.62 C
1644 06-08-2018 17:35:00 34.3 C 32 % 15.23 C
1645 06-08-2018 17:40:00 34.2 C 33 % 15.62 C
1646 06-08-2018 17:45:00 34.4 C 33 % 15.8 C
1647 06-08-2018 17:50:00 34.8 C 33 % 16.14 C
1648 06-08-2018 17:55:00 35.1 C 31 % 15.43 C
1649 06-08-2018 18:00:00 35.3 C 29 % 14.56 C
1650 06-08-2018 18:05:00 35.4 C 29 % 14.65 C
Sensor: Nr:Datum:Temp:Feuchte:Taupunkt:
Aussen-T/F 1651 06-08-2018 18:10:00 35.6 C 29 % 14.82 C
1652 06-08-2018 18:15:00 35.8 C 28 % 14.44 C
1653 06-08-2018 18:20:00 35.8 C 28 % 14.44 C
1654 06-08-2018 18:25:00 35.8 C 28 % 14.44 C
1655 06-08-2018 18:30:00 35.7 C 28 % 14.36 C
1656 06-08-2018 18:35:00 35.3 C 28 % 14.02 C
1657 06-08-2018 18:40:00 35.2 C 32 % 16.01 C
1658 06-08-2018 18:45:00 35.4 C 29 % 14.65 C
1659 06-08-2018 18:50:00 35.7 C 28 % 14.36 C
1660 06-08-2018 18:55:00 35.9 C 28 % 14.53 C
1661 06-08-2018 19:00:00 35.9 C 30 % 15.6 C
1662 06-08-2018 19:05:00 35.9 C 28 % 14.53 C
1663 06-08-2018 19:10:00 36.1 C 27 % 14.14 C
1664 06-08-2018 19:15:00 35.9 C 27 % 13.97 C
1665 06-08-2018 19:20:00 35.7 C 27 % 13.8 C
1666 06-08-2018 19:25:00 35.4 C 31 % 15.68 C
1667 06-08-2018 19:30:00 35.2 C 33 % 16.49 C
1668 06-08-2018 19:35:00 34.9 C 35 % 17.16 C
1669 06-08-2018 19:40:00 34.6 C 34 % 16.44 C
1670 06-08-2018 19:45:00 34.3 C 36 % 17.08 C
1671 06-08-2018 19:50:00 33.9 C 35 % 16.28 C
1672 06-08-2018 19:55:00 33.6 C 36 % 16.46 C
1673 06-08-2018 20:00:00 33.3 C 38 % 17.05 C
1674 06-08-2018 20:05:00 33 C 38 % 16.78 C
1675 06-08-2018 20:10:00 32.6 C 40 % 17.24 C
Sensor: Nr:Datum:Temp:Feuchte:Taupunkt:
Aussen-T/F 1676 06-08-2018 20:15:00 32 C 39 % 16.31 C
1677 06-08-2018 20:20:00 31.6 C 40 % 16.35 C
1678 06-08-2018 20:25:00 31.2 C 41 % 16.38 C
1679 06-08-2018 20:30:00 30.8 C 41 % 16.02 C
1680 06-08-2018 20:35:00 30.4 C 41 % 15.67 C
1681 06-08-2018 20:40:00 30.1 C 43 % 16.14 C
1682 06-08-2018 20:45:00 29.8 C 43 % 15.87 C
1683 06-08-2018 20:50:00 29.4 C 44 % 15.87 C
1684 06-08-2018 20:55:00 29.1 C 44 % 15.6 C
1685 06-08-2018 21:00:00 28.8 C 44 % 15.33 C
1686 06-08-2018 21:05:00 28.5 C 45 % 15.41 C
1687 06-08-2018 21:10:00 28.3 C 45 % 15.23 C
1688 06-08-2018 21:15:00 28.2 C 45 % 15.14 C
1689 06-08-2018 21:20:00 28 C 45 % 14.96 C
1690 06-08-2018 21:25:00 27.9 C 46 % 15.21 C
1691 06-08-2018 21:30:00 27.8 C 47 % 15.45 C
1692 06-08-2018 21:35:00 27.6 C 50 % 16.24 C
1693 06-08-2018 21:40:00 27.2 C 49 % 15.56 C
1694 06-08-2018 21:45:00 26.9 C 51 % 15.91 C
1695 06-08-2018 21:50:00 26.6 C 50 % 15.32 C
1696 06-08-2018 21:55:00 26.3 C 52 % 15.66 C
1697 06-08-2018 22:00:00 26.2 C 53 % 15.87 C
1698 06-08-2018 22:05:00 25.8 C 53 % 15.5 C
1699 06-08-2018 22:10:00 25.6 C 54 % 15.6 C
1700 06-08-2018 22:15:00 25.4 C 56 % 15.99 C
Sensor: Nr:Datum:Temp:Feuchte:Taupunkt:
Aussen-T/F 1701 06-08-2018 22:20:00 25.2 C 56 % 15.8 C
1702 06-08-2018 22:25:00 25 C 54 % 15.05 C
1703 06-08-2018 22:30:00 24.9 C 57 % 15.8 C
1704 06-08-2018 22:35:00 24.8 C 57 % 15.7 C
1705 06-08-2018 22:40:00 24.7 C 58 % 15.88 C
1706 06-08-2018 22:45:00 24.6 C 59 % 16.06 C
1707 06-08-2018 22:50:00 24.4 C 58 % 15.6 C
1708 06-08-2018 22:55:00 24.3 C 58 % 15.51 C
1709 06-08-2018 23:00:00 24.3 C 59 % 15.78 C
1710 06-08-2018 23:05:00 24.3 C 59 % 15.78 C
1711 06-08-2018 23:10:00 24.2 C 59 % 15.68 C
1712 06-08-2018 23:15:00 24 C 60 % 15.76 C
1713 06-08-2018 23:20:00 23.8 C 61 % 15.83 C
1714 06-08-2018 23:25:00 23.5 C 61 % 15.55 C
1715 06-08-2018 23:30:00 23.3 C 61 % 15.36 C
1716 06-08-2018 23:35:00 23.2 C 61 % 15.26 C
1717 06-08-2018 23:40:00 23.1 C 63 % 15.67 C
1718 06-08-2018 23:45:00 22.9 C 62 % 15.23 C
1719 06-08-2018 23:50:00 22.8 C 63 % 15.39 C
1720 06-08-2018 23:55:00 22.6 C 64 % 15.45 C
1721 07-08-2018 00:00:00 22.4 C 64 % 15.26 C
1722 07-08-2018 00:05:00 22.2 C 65 % 15.31 C
1723 07-08-2018 00:10:00 22 C 65 % 15.12 C
1724 07-08-2018 00:15:00 21.8 C 64 % 14.69 C
1725 07-08-2018 00:20:00 21.7 C 65 % 14.84 C
Sensor: Nr:Datum:Temp:Feuchte:Taupunkt:
Aussen-T/F 1726 07-08-2018 00:25:00 21.6 C 64 % 14.5 C
1727 07-08-2018 00:30:00 21.6 C 64 % 14.5 C
1728 07-08-2018 00:35:00 21.5 C 65 % 14.65 C
1729 07-08-2018 00:40:00 21.5 C 64 % 14.41 C
1730 07-08-2018 00:45:00 21.5 C 65 % 14.65 C
1731 07-08-2018 00:50:00 21.5 C 65 % 14.65 C
1732 07-08-2018 00:55:00 21.5 C 64 % 14.41 C
1733 07-08-2018 01:00:00 21.5 C 65 % 14.65 C
1734 07-08-2018 01:05:00 21.4 C 65 % 14.55 C
1735 07-08-2018 01:10:00 21.4 C 65 % 14.55 C
1736 07-08-2018 01:15:00 21.2 C 65 % 14.36 C
1737 07-08-2018 01:20:00 21 C 66 % 14.41 C
1738 07-08-2018 01:25:00 20.9 C 66 % 14.31 C
1739 07-08-2018 01:30:00 20.7 C 67 % 14.36 C
1740 07-08-2018 01:35:00 20.6 C 68 % 14.49 C
1741 07-08-2018 01:40:00 20.3 C 67 % 13.97 C
1742 07-08-2018 01:45:00 20.2 C 68 % 14.11 C
1743 07-08-2018 01:50:00 20 C 69 % 14.14 C
1744 07-08-2018 01:55:00 19.8 C 70 % 14.17 C
1745 07-08-2018 02:00:00 19.7 C 70 % 14.08 C
1746 07-08-2018 02:05:00 19.4 C 71 % 14.01 C
1747 07-08-2018 02:10:00 19.3 C 71 % 13.91 C
1748 07-08-2018 02:15:00 19.1 C 72 % 13.94 C
1749 07-08-2018 02:20:00 19.1 C 72 % 13.94 C
1750 07-08-2018 02:25:00 19 C 72 % 13.84 C
Sensor: Nr:Datum:Temp:Feuchte:Taupunkt:
Aussen-T/F 1751 07-08-2018 02:30:00 19.1 C 72 % 13.94 C
1752 07-08-2018 02:35:00 19.3 C 73 % 14.34 C
1753 07-08-2018 02:40:00 19.5 C 74 % 14.74 C
1754 07-08-2018 02:45:00 19.5 C 73 % 14.53 C
1755 07-08-2018 02:50:00 19.4 C 72 % 14.22 C
1756 07-08-2018 02:55:00 19.3 C 72 % 14.13 C
1757 07-08-2018 03:00:00 19.1 C 73 % 14.15 C
1758 07-08-2018 03:05:00 18.9 C 73 % 13.96 C
1759 07-08-2018 03:10:00 18.8 C 73 % 13.86 C
1760 07-08-2018 03:15:00 18.7 C 73 % 13.76 C
1761 07-08-2018 03:20:00 18.6 C 74 % 13.88 C
1762 07-08-2018 03:25:00 18.6 C 74 % 13.88 C
1763 07-08-2018 03:30:00 18.6 C 74 % 13.88 C
1764 07-08-2018 03:35:00 18.5 C 74 % 13.78 C
1765 07-08-2018 03:40:00 18.3 C 74 % 13.59 C
1766 07-08-2018 03:45:00 18.2 C 75 % 13.7 C
1767 07-08-2018 03:50:00 18.1 C 75 % 13.6 C
1768 07-08-2018 03:55:00 18.1 C 75 % 13.6 C
1769 07-08-2018 04:00:00 17.9 C 76 % 13.61 C
1770 07-08-2018 04:05:00 17.8 C 76 % 13.52 C
1771 07-08-2018 04:10:00 17.8 C 76 % 13.52 C
1772 07-08-2018 04:15:00 17.7 C 77 % 13.62 C
1773 07-08-2018 04:20:00 17.6 C 77 % 13.52 C
1774 07-08-2018 04:25:00 17.5 C 78 % 13.62 C
1775 07-08-2018 04:30:00 17.4 C 78 % 13.53 C
Sensor: Nr:Datum:Temp:Feuchte:Taupunkt:
Aussen-T/F 1776 07-08-2018 04:35:00 17.4 C 78 % 13.53 C
1777 07-08-2018 04:40:00 17.3 C 78 % 13.43 C
1778 07-08-2018 04:45:00 17.2 C 78 % 13.33 C
1779 07-08-2018 04:50:00 17.2 C 79 % 13.53 C
1780 07-08-2018 04:55:00 17.2 C 79 % 13.53 C
1781 07-08-2018 05:00:00 17.2 C 80 % 13.72 C
1782 07-08-2018 05:05:00 17.2 C 80 % 13.72 C
1783 07-08-2018 05:10:00 17.2 C 80 % 13.72 C
1784 07-08-2018 05:15:00 17.2 C 80 % 13.72 C
1785 07-08-2018 05:20:00 17.2 C 79 % 13.53 C
1786 07-08-2018 05:25:00 17.1 C 79 % 13.43 C
1787 07-08-2018 05:30:00 16.9 C 79 % 13.24 C
1788 07-08-2018 05:35:00 16.9 C 80 % 13.43 C
1789 07-08-2018 05:40:00 16.8 C 80 % 13.33 C
1790 07-08-2018 05:45:00 16.7 C 80 % 13.23 C
1791 07-08-2018 05:50:00 16.7 C 81 % 13.43 C
1792 07-08-2018 05:55:00 16.6 C 81 % 13.33 C
1793 07-08-2018 06:00:00 16.5 C 81 % 13.23 C
1794 07-08-2018 06:05:00 16.6 C 82 % 13.52 C
1795 07-08-2018 06:10:00 16.6 C 82 % 13.52 C
1796 07-08-2018 06:15:00 16.6 C 82 % 13.52 C
1797 07-08-2018 06:20:00 16.6 C 82 % 13.52 C
1798 07-08-2018 06:25:00 16.5 C 82 % 13.42 C
1799 07-08-2018 06:30:00 16.6 C 82 % 13.52 C
1800 07-08-2018 06:35:00 16.6 C 83 % 13.7 C
Sensor: Nr:Datum:Temp:Feuchte:Taupunkt:
Aussen-T/F 1801 07-08-2018 06:40:00 16.7 C 83 % 13.8 C
1802 07-08-2018 06:45:00 16.7 C 82 % 13.61 C
1803 07-08-2018 06:50:00 16.8 C 82 % 13.71 C
1804 07-08-2018 06:55:00 16.8 C 82 % 13.71 C
1805 07-08-2018 07:00:00 16.9 C 82 % 13.81 C
1806 07-08-2018 07:05:00 16.9 C 82 % 13.81 C
1807 07-08-2018 07:10:00 16.9 C 83 % 14 C
1808 07-08-2018 07:15:00 17 C 83 % 14.09 C
1809 07-08-2018 07:20:00 17 C 83 % 14.09 C
1810 07-08-2018 07:25:00 17 C 83 % 14.09 C
1811 07-08-2018 07:30:00 17.1 C 83 % 14.19 C
1812 07-08-2018 07:35:00 17.1 C 83 % 14.19 C
1813 07-08-2018 07:40:00 17.2 C 83 % 14.29 C
1814 07-08-2018 07:45:00 17.3 C 83 % 14.39 C
1815 07-08-2018 07:50:00 17.3 C 83 % 14.39 C
1816 07-08-2018 07:55:00 17.4 C 84 % 14.67 C
1817 07-08-2018 08:00:00 17.5 C 83 % 14.58 C
1818 07-08-2018 08:05:00 17.6 C 83 % 14.68 C
1819 07-08-2018 08:10:00 17.7 C 83 % 14.78 C
1820 07-08-2018 08:15:00 17.8 C 83 % 14.88 C
1821 07-08-2018 08:20:00 17.9 C 83 % 14.97 C
1822 07-08-2018 08:25:00 18.1 C 83 % 15.17 C
1823 07-08-2018 08:30:00 18.2 C 82 % 15.08 C
1824 07-08-2018 08:35:00 18.3 C 82 % 15.17 C
1825 07-08-2018 08:40:00 18.3 C 82 % 15.17 C
Sensor: Nr:Datum:Temp:Feuchte:Taupunkt:
Aussen-T/F 1826 07-08-2018 08:45:00 18.6 C 82 % 15.47 C
1827 07-08-2018 08:50:00 18.7 C 83 % 15.75 C
1828 07-08-2018 08:55:00 18.8 C 82 % 15.66 C
1829 07-08-2018 09:00:00 19 C 81 % 15.67 C
1830 07-08-2018 09:05:00 19.2 C 79 % 15.47 C
1831 07-08-2018 09:10:00 19.5 C 80 % 15.96 C
1832 07-08-2018 09:15:00 19.8 C 81 % 16.45 C
1833 07-08-2018 09:20:00 20.1 C 80 % 16.54 C
1834 07-08-2018 09:25:00 20.2 C 80 % 16.64 C
1835 07-08-2018 09:30:00 20.4 C 76 % 16.03 C
1836 07-08-2018 09:35:00 20.7 C 77 % 16.52 C
1837 07-08-2018 09:40:00 21.1 C 74 % 16.29 C
1838 07-08-2018 09:45:00 21.6 C 72 % 16.34 C
1839 07-08-2018 09:50:00 22 C 71 % 16.5 C
1840 07-08-2018 09:55:00 22.3 C 70 % 16.56 C
1841 07-08-2018 10:00:00 22.6 C 68 % 16.39 C
1842 07-08-2018 10:05:00 22.8 C 69 % 16.82 C
1843 07-08-2018 10:10:00 23.1 C 68 % 16.87 C
1844 07-08-2018 10:15:00 23.2 C 69 % 17.2 C
1845 07-08-2018 10:20:00 23.2 C 69 % 17.2 C
1846 07-08-2018 10:25:00 23.2 C 69 % 17.2 C
1847 07-08-2018 10:30:00 23.3 C 69 % 17.29 C
1848 07-08-2018 10:35:00 23.5 C 69 % 17.48 C
1849 07-08-2018 10:40:00 23.7 C 68 % 17.44 C
1850 07-08-2018 10:45:00 23.9 C 69 % 17.87 C
Sensor: Nr:Datum:Temp:Feuchte:Taupunkt:
Aussen-T/F 1851 07-08-2018 10:50:00 24.2 C 67 % 17.68 C
1852 07-08-2018 10:55:00 24.4 C 67 % 17.87 C
1853 07-08-2018 11:00:00 24.7 C 67 % 18.16 C
1854 07-08-2018 11:05:00 24.9 C 68 % 18.59 C
1855 07-08-2018 11:10:00 25.1 C 66 % 18.3 C
1856 07-08-2018 11:15:00 25.3 C 66 % 18.49 C
1857 07-08-2018 11:20:00 25.6 C 65 % 18.53 C
1858 07-08-2018 11:25:00 25.9 C 63 % 18.31 C
1859 07-08-2018 11:30:00 26.3 C 62 % 18.44 C
1860 07-08-2018 11:35:00 26.8 C 60 % 18.38 C
1861 07-08-2018 11:40:00 27.3 C 58 % 18.31 C
1862 07-08-2018 11:45:00 27.8 C 56 % 18.22 C
1863 07-08-2018 11:50:00 28.2 C 56 % 18.59 C
1864 07-08-2018 11:55:00 28.6 C 55 % 18.67 C
1865 07-08-2018 12:00:00 28.9 C 52 % 18.05 C
1866 07-08-2018 12:05:00 29.2 C 50 % 17.71 C
1867 07-08-2018 12:10:00 29.7 C 50 % 18.16 C
1868 07-08-2018 12:15:00 30.2 C 47 % 17.64 C
1869 07-08-2018 12:20:00 30.7 C 46 % 17.75 C
1870 07-08-2018 12:25:00 31.1 C 45 % 17.76 C
1871 07-08-2018 12:30:00 31.4 C 43 % 17.31 C
1872 07-08-2018 12:35:00 31.7 C 41 % 16.83 C
1873 07-08-2018 12:40:00 31.8 C 40 % 16.53 C
1874 07-08-2018 12:45:00 31.9 C 40 % 16.62 C
1875 07-08-2018 12:50:00 32.1 C 39 % 16.4 C
Sensor: Nr:Datum:Temp:Feuchte:Taupunkt:
Aussen-T/F 1876 07-08-2018 12:55:00 32.2 C 39 % 16.48 C
1877 07-08-2018 13:00:00 32.2 C 40 % 16.88 C
1878 07-08-2018 13:05:00 32.3 C 37 % 15.75 C
1879 07-08-2018 13:10:00 32.6 C 37 % 16.01 C
1880 07-08-2018 13:15:00 32.7 C 37 % 16.1 C
1881 07-08-2018 13:20:00 32.9 C 36 % 15.85 C
1882 07-08-2018 13:25:00 33 C 37 % 16.36 C
1883 07-08-2018 13:30:00 33.1 C 41 % 18.08 C
1884 07-08-2018 13:35:00 32.9 C 39 % 17.11 C
1885 07-08-2018 13:40:00 32.8 C 39 % 17.02 C
1886 07-08-2018 13:45:00 32.8 C 37 % 16.19 C
1887 07-08-2018 13:50:00 33.2 C 35 % 15.67 C
1888 07-08-2018 13:55:00 33.7 C 34 % 15.65 C
1889 07-08-2018 14:00:00 34.1 C 33 % 15.54 C
1890 07-08-2018 14:05:00 34.3 C 33 % 15.71 C
1891 07-08-2018 14:10:00 34.3 C 33 % 15.71 C
1892 07-08-2018 14:15:00 34.3 C 32 % 15.23 C
1893 07-08-2018 14:20:00 34.6 C 32 % 15.49 C
1894 07-08-2018 14:25:00 34.8 C 31 % 15.17 C
1895 07-08-2018 14:30:00 34.9 C 31 % 15.25 C
1896 07-08-2018 14:35:00 34.9 C 31 % 15.25 C
1897 07-08-2018 14:40:00 34.8 C 30 % 14.66 C
1898 07-08-2018 14:45:00 34.8 C 31 % 15.17 C
1899 07-08-2018 14:50:00 34.9 C 31 % 15.25 C
1900 07-08-2018 14:55:00 35 C 30 % 14.83 C
Sensor: Nr:Datum:Temp:Feuchte:Taupunkt:
Aussen-T/F 1901 07-08-2018 15:00:00 35.2 C 30 % 15 C
1902 07-08-2018 15:05:00 35.2 C 30 % 15 C
1903 07-08-2018 15:10:00 35.2 C 30 % 15 C
1904 07-08-2018 15:15:00 35.3 C 30 % 15.09 C
1905 07-08-2018 15:20:00 35.5 C 29 % 14.73 C
1906 07-08-2018 15:25:00 35.8 C 29 % 14.99 C
1907 07-08-2018 15:30:00 35.8 C 30 % 15.52 C
1908 07-08-2018 15:35:00 35.9 C 28 % 14.53 C
1909 07-08-2018 15:40:00 36.1 C 29 % 15.24 C
1910 07-08-2018 15:45:00 36.3 C 29 % 15.41 C
1911 07-08-2018 15:50:00 36.6 C 29 % 15.67 C
1912 07-08-2018 15:55:00 36.9 C 28 % 15.38 C
1913 07-08-2018 16:00:00 37.2 C 27 % 15.07 C
1914 07-08-2018 16:05:00 37.1 C 27 % 14.98 C
1915 07-08-2018 16:10:00 37.2 C 27 % 15.07 C
1916 07-08-2018 16:15:00 37.3 C 26 % 14.57 C
1917 07-08-2018 16:20:00 37.4 C 26 % 14.65 C
1918 07-08-2018 16:25:00 37.1 C 27 % 14.98 C
1919 07-08-2018 16:30:00 37 C 27 % 14.9 C
1920 07-08-2018 16:35:00 37.2 C 28 % 15.63 C
1921 07-08-2018 16:40:00 37.7 C 27 % 15.49 C
1922 07-08-2018 16:45:00 38 C 27 % 15.74 C
1923 07-08-2018 16:50:00 38.1 C 28 % 16.4 C
1924 07-08-2018 16:55:00 37.8 C 27 % 15.57 C
1925 07-08-2018 17:00:00 37.6 C 26 % 14.82 C
Sensor: Nr:Datum:Temp:Feuchte:Taupunkt:
Aussen-T/F 1926 07-08-2018 17:05:00 37.6 C 26 % 14.82 C
1927 07-08-2018 17:10:00 37.9 C 26 % 15.07 C
1928 07-08-2018 17:15:00 38.1 C 25 % 14.63 C
1929 07-08-2018 17:20:00 37.9 C 26 % 15.07 C
1930 07-08-2018 17:25:00 37.7 C 27 % 15.49 C
1931 07-08-2018 17:30:00 37.4 C 28 % 15.8 C
1932 07-08-2018 17:35:00 37.5 C 27 % 15.32 C
1933 07-08-2018 17:40:00 37.8 C 26 % 14.99 C
1934 07-08-2018 17:45:00 37.9 C 26 % 15.07 C
1935 07-08-2018 17:50:00 37.8 C 26 % 14.99 C
1936 07-08-2018 17:55:00 38.2 C 25 % 14.71 C
1937 07-08-2018 18:00:00 38.3 C 25 % 14.8 C
1938 07-08-2018 18:05:00 38.3 C 23 % 13.51 C
1939 07-08-2018 18:10:00 38.4 C 24 % 14.25 C
1940 07-08-2018 18:15:00 38.4 C 23 % 13.59 C
1941 07-08-2018 18:20:00 38.4 C 23 % 13.59 C
1942 07-08-2018 18:25:00 38.4 C 24 % 14.25 C
1943 07-08-2018 18:30:00 38.4 C 23 % 13.59 C
1944 07-08-2018 18:35:00 38.3 C 23 % 13.51 C
1945 07-08-2018 18:40:00 38.3 C 23 % 13.51 C
1946 07-08-2018 18:45:00 38.2 C 23 % 13.43 C
1947 07-08-2018 18:50:00 38 C 24 % 13.92 C
1948 07-08-2018 18:55:00 37.8 C 23 % 13.1 C
1949 07-08-2018 19:00:00 37.7 C 25 % 14.29 C
1950 07-08-2018 19:05:00 37.6 C 23 % 12.93 C
Sensor: Nr:Datum:Temp:Feuchte:Taupunkt:
Aussen-T/F 1951 07-08-2018 19:10:00 37.6 C 24 % 13.58 C
1952 07-08-2018 19:15:00 37.6 C 24 % 13.58 C
1953 07-08-2018 19:20:00 37.5 C 24 % 13.5 C
1954 07-08-2018 19:25:00 37.2 C 24 % 13.25 C
1955 07-08-2018 19:30:00 36.9 C 28 % 15.38 C
1956 07-08-2018 19:35:00 36.7 C 27 % 14.64 C
1957 07-08-2018 19:40:00 36.4 C 29 % 15.5 C
1958 07-08-2018 19:45:00 36.1 C 26 % 13.56 C
1959 07-08-2018 19:50:00 35.7 C 31 % 15.94 C
1960 07-08-2018 19:55:00 35.4 C 32 % 16.18 C
1961 07-08-2018 20:00:00 35 C 33 % 16.32 C
1962 07-08-2018 20:05:00 34.5 C 35 % 16.81 C
1963 07-08-2018 20:10:00 34 C 37 % 17.25 C
1964 07-08-2018 20:15:00 33.6 C 39 % 17.73 C
1965 07-08-2018 20:20:00 33.3 C 40 % 17.86 C
1966 07-08-2018 20:25:00 33.2 C 40 % 17.77 C
1967 07-08-2018 20:30:00 33 C 41 % 17.99 C
1968 07-08-2018 20:35:00 32.9 C 41 % 17.9 C
1969 07-08-2018 20:40:00 32.8 C 42 % 18.19 C
1970 07-08-2018 20:45:00 32.7 C 43 % 18.48 C
1971 07-08-2018 20:50:00 32.4 C 43 % 18.21 C
1972 07-08-2018 20:55:00 32.2 C 44 % 18.39 C
1973 07-08-2018 21:00:00 32.1 C 45 % 18.66 C
1974 07-08-2018 21:05:00 31.8 C 45 % 18.39 C
1975 07-08-2018 21:10:00 31.6 C 46 % 18.56 C
Sensor: Nr:Datum:Temp:Feuchte:Taupunkt:
Aussen-T/F 1976 07-08-2018 21:15:00 31.3 C 48 % 18.97 C
1977 07-08-2018 21:20:00 31 C 48 % 18.7 C
1978 07-08-2018 21:25:00 30.6 C 48 % 18.33 C
1979 07-08-2018 21:30:00 30.3 C 48 % 18.06 C
1980 07-08-2018 21:35:00 30.1 C 49 % 18.21 C
1981 07-08-2018 21:40:00 29.8 C 50 % 18.25 C
1982 07-08-2018 21:45:00 29.6 C 49 % 17.75 C
1983 07-08-2018 21:50:00 29.3 C 50 % 17.8 C
1984 07-08-2018 21:55:00 29.2 C 52 % 18.33 C
1985 07-08-2018 22:00:00 28.9 C 52 % 18.05 C
1986 07-08-2018 22:05:00 28.8 C 53 % 18.26 C
1987 07-08-2018 22:10:00 28.6 C 53 % 18.08 C
1988 07-08-2018 22:15:00 28.5 C 54 % 18.29 C
1989 07-08-2018 22:20:00 28.4 C 55 % 18.49 C
1990 07-08-2018 22:25:00 28.3 C 54 % 18.1 C
1991 07-08-2018 22:30:00 28.3 C 54 % 18.1 C
1992 07-08-2018 22:35:00 28.3 C 54 % 18.1 C
1993 07-08-2018 22:40:00 28.3 C 54 % 18.1 C
1994 07-08-2018 22:45:00 28.2 C 55 % 18.3 C
1995 07-08-2018 22:50:00 28.2 C 54 % 18.01 C
1996 07-08-2018 22:55:00 28.2 C 54 % 18.01 C
1997 07-08-2018 23:00:00 28.1 C 55 % 18.21 C
1998 07-08-2018 23:05:00 28.1 C 55 % 18.21 C
1999 07-08-2018 23:10:00 28.1 C 55 % 18.21 C
2000 07-08-2018 23:15:00 28.1 C 55 % 18.21 C
Sensor: Nr:Datum:Temp:Feuchte:Taupunkt:
Aussen-T/F 2001 07-08-2018 23:20:00 28.1 C 55 % 18.21 C
2002 07-08-2018 23:25:00 28 C 56 % 18.4 C
2003 07-08-2018 23:30:00 27.9 C 55 % 18.02 C
2004 07-08-2018 23:35:00 27.8 C 56 % 18.22 C
2005 07-08-2018 23:40:00 27.7 C 56 % 18.12 C
2006 07-08-2018 23:45:00 27.7 C 57 % 18.41 C
2007 07-08-2018 23:50:00 27.6 C 57 % 18.31 C
2008 07-08-2018 23:55:00 27.5 C 57 % 18.22 C

Legende:
   Min
   Max


Maximal/Minimal-Werte vom 01.08.2018 - 07.08.2018

Sensor Min Max Avg
Temp
(Aussen-T/F)
14.7 °C
06-08-2018  06:45:00
38.4 °C
07-08-2018  18:10:00
24.7 °C
Feuchte
(Aussen-T/F)
23 %
07-08-2018  18:05:00
96 %
01-08-2018  08:50:00
64.82 %
Taupunkt
(Aussen-T/F)
11.85 C
06-08-2018  06:45:00
21.68 C
01-08-2018  18:45:00
16.47 C

Die Daten stammen von einer Davis Vantage Pro 2 Wetter-Station und werden unter Linux mit der Software wview2wettercgi und aufbereitet. Alle Angaben erfolgen ohne Gewähr für ihre Vollständigkeit oder Richtigkeit.
Kontakt: Rainer Krienke krienke@uni-koblenz.de . Meine Webseiten an der Uni Koblenz oder privat.
Version: $Revision: 0.78 $